GFSSGP_sfc_temp_066.txt.gz
Temp
64 64 65 64 50 45 40 50 60 62 61 68 73 70 66 64 66 55 72 74 73 72 73 74 73 74 74 74 74 74 75 76 75 75 75 75 75 75 76 76 76 76 77 78 78 77 76 75 74
66 70 64 56 44 37 42 54 58 64 70 72 74 71 67 64 71 70 70 75 74 73 72 73 73 74 74 74 74 74 75 76 75 75 75 75 75 75 75 75 75 76 77 78 78 77 76 74 73
70 72 57 50 41 39 44 57 66 70 72 72 69 72 70 67 72 71 73 75 74 72 73 74 73 73 74 74 74 74 74 74 74 75 75 75 75 75 75 74 75 76 77 77 77 76 74 73 72
66 61 56 46 43 51 54 58 65 68 70 71 70 67 71 74 73 74 75 75 71 71 74 71 72 72 73 74 74 74 74 73 74 74 75 75 75 75 75 74 75 76 76 76 76 75 73 72 71
61 54 44 40 46 56 62 65 66 68 70 71 72 66 66 70 74 74 73 74 71 69 72 71 71 72 73 74 74 73 73 73 73 74 74 75 75 75 74 74 75 75 75 75 74 73 71 71 71
54 52 40 39 47 60 62 67 68 71 71 70 69 65 64 73 71 70 71 70 70 68 68 70 71 72 72 73 72 72 72 72 73 73 74 74 74 74 74 74 74 74 73 73 72 71 71 71 70
51 45 41 42 49 56 64 69 69 70 70 69 73 62 63 68 70 71 70 69 68 68 68 68 70 70 69 69 70 69 70 72 72 67 72 72 72 72 73 73 73 72 72 71 71 70 70 70 70
55 49 41 45 50 51 64 69 71 69 65 75 74 61 59 68 70 68 68 67 67 66 67 67 68 69 66 66 67 67 67 67 67 66 65 66 70 72 72 71 71 71 70 70 70 70 70 70 69
58 44 40 45 51 58 67 65 72 73 71 70 72 68 71 71 70 66 64 63 63 65 64 65 65 65 66 65 66 67 67 67 66 66 64 62 66 70 70 70 70 69 68 69 69 69 69 68 68
52 45 48 57 60 60 65 64 68 70 67 67 65 68 71 70 68 65 62 61 61 61 62 63 64 64 65 65 63 63 64 64 64 64 63 62 65 67 69 68 68 68 68 68 68 68 67 67 67
52 51 58 60 65 63 64 66 69 67 64 68 64 65 68 68 65 64 62 62 62 62 62 62 63 65 65 64 63 62 60 61 62 63 63 63 66 67 67 66 66 66 67 65 66 64 63 63 64
51 59 61 63 67 65 64 69 65 66 69 72 69 69 68 67 64 64 62 61 61 62 61 62 63 65 64 64 63 62 60 60 60 63 62 64 65 65 65 66 65 63 63 60 59 59 62 63 64
55 59 64 66 67 68 68 65 66 66 71 70 70 70 68 67 67 65 63 61 60 60 61 61 64 64 64 63 63 61 61 63 61 64 63 65 65 64 64 65 64 62 61 59 58 59 62 64 63
61 61 63 66 67 66 64 65 62 68 70 68 69 67 67 66 65 61 61 59 60 60 60 61 63 63 64 63 63 61 63 63 64 65 65 66 65 64 63 64 63 63 62 61 58 58 60 61 62
61 55 60 62 63 61 64 60 60 71 69 68 67 68 66 67 65 64 63 60 60 60 60 61 61 63 63 63 63 63 63 63 63 64 64 65 65 64 63 63 62 63 63 59 57 58 60 61 63
54 53 46 59 63 65 61 53 67 70 67 66 64 66 67 67 67 65 63 61 59 59 59 61 63 63 62 62 62 62 62 61 61 63 63 65 66 65 63 65 64 63 63 62 59 58 58 59 60
47 40 46 55 65 63 60 57 67 69 67 65 64 65 65 65 63 65 63 60 59 59 59 61 62 62 62 61 62 62 60 60 61 61 64 64 65 66 64 63 63 65 64 61 61 58 59 59 58
40 43 47 50 56 60 57 59 67 70 64 66 63 64 65 65 66 65 62 61 59 59 59 61 61 61 62 61 62 62 61 60 59 61 64 64 66 66 65 64 63 64 64 62 62 59 60 63 61
51 49 46 52 58 55 55 57 61 67 63 61 60 61 64 65 67 64 61 59 58 58 58 59 60 60 61 60 60 60 60 60 60 61 64 64 65 65 64 65 64 64 61 63 63 61 62 60 60
50 48 46 53 59 57 56 55 62 65 65 65 64 60 64 63 63 61 59 58 58 58 58 58 60 60 60 60 61 60 60 60 61 60 61 64 63 65 64 64 63 63 61 59 62 62 58 60 61
48 47 48 48 55 60 55 52 58 63 65 64 65 66 65 65 63 60 58 57 57 57 57 58 59 59 60 60 60 58 59 58 58 58 59 61 61 65 66 65 63 63 62 61 60 61 62 60 58
42 55 54 53 50 39 56 38 54 58 60 63 64 61 61 66 67 62 59 57 56 57 58 58 59 59 60 60 59 58 58 56 59 59 60 60 61 62 65 64 63 62 62 60 61 62 60 60 61
48 55 50 49 43 41 49 42 51 55 56 60 62 62 63 67 67 63 59 58 58 57 57 58 58 60 60 60 60 59 58 59 59 60 59 59 59 61 64 64 62 61 61 60 60 60 59 61 58
53 50 49 49 44 32 46 44 43 48 58 61 65 64 64 67 67 66 62 59 57 57 57 57 57 59 60 60 59 59 59 59 58 58 57 58 60 61 61 65 63 61 60 61 60 61 61 61 61
49 42 35 34 32 31 50 45 48 57 61 64 64 66 65 67 66 63 60 57 56 57 57 57 57 57 59 59 59 60 59 58 58 57 59 59 60 60 60 62 61 61 62 61 60 59 59 59 59
45 41 33 28 28 35 51 40 48 62 67 67 68 65 64 66 65 62 62 59 57 57 56 57 56 57 58 59 59 59 59 57 57 58 59 58 60 62 63 62 63 63 63 61 61 59 59 59 58
41 36 46 35 40 32 41 48 58 59 62 65 64 62 62 64 64 63 63 62 58 57 56 57 57 57 58 59 60 58 57 58 58 57 57 59 57 61 62 63 61 61 60 61 60 59 59 59 61
49 50 34 36 28 27 39 42 44 52 55 60 58 58 60 64 64 64 63 63 61 59 58 58 58 58 58 59 60 60 59 59 59 58 57 58 59 58 59 61 61 61 61 60 59 58 59 59 60
45 38 38 40 38 30 31 38 51 52 56 57 57 59 59 60 61 62 63 63 63 60 58 58 58 59 58 59 59 60 61 61 61 60 59 59 59 59 58 59 61 62 61 59 59 59 60 59 60
49 43 43 34 34 38 35 35 52 55 57 59 59 59 59 61 62 62 61 62 63 60 59 57 57 58 59 59 59 59 60 61 61 60 61 60 59 59 60 59 59 60 61 61 60 60 62 60 60

GFSSGP_sfc_temp_069.txt.gz
Temp
63 63 61 62 50 43 38 46 53 57 62 65 69 66 65 62 64 55 69 71 72 71 72 72 73 74 74 74 74 74 75 75 75 75 75 76 76 75 75 75 76 76 77 78 78 78 77 76 74
63 66 61 53 43 36 40 50 55 59 67 69 68 66 64 62 69 68 68 72 72 71 72 72 73 73 74 74 74 74 75 75 75 75 75 75 75 75 75 75 75 76 77 78 77 77 76 74 73
66 67 56 48 38 38 42 53 59 64 69 66 65 67 67 65 70 69 71 72 71 70 73 72 72 73 73 73 74 74 74 74 74 75 75 75 75 75 75 75 75 76 77 78 77 76 74 72 71
64 59 54 43 40 46 50 56 58 63 69 67 65 63 67 70 71 72 72 72 69 69 71 72 71 72 73 73 73 74 74 74 74 74 75 75 75 75 75 74 75 77 77 77 77 74 72 71 71
57 52 42 37 42 49 55 61 61 63 65 68 65 63 64 70 72 72 71 72 68 68 70 71 70 72 73 73 73 73 73 73 73 74 74 74 75 74 74 74 75 75 76 75 74 72 71 70 70
52 49 37 36 43 53 57 61 61 64 68 68 64 63 63 69 69 68 69 68 68 67 68 70 72 72 72 72 72 72 72 72 73 73 74 74 74 73 73 74 74 74 74 73 72 72 71 70 70
48 43 38 39 44 50 58 63 62 64 65 65 69 59 61 65 68 68 67 66 67 67 67 67 71 72 70 69 70 69 71 72 71 71 72 72 72 72 72 73 73 73 72 71 70 71 70 70 69
52 46 37 42 46 49 59 62 64 64 64 71 69 59 58 66 68 67 66 65 65 65 65 66 67 66 65 65 68 68 67 66 66 68 68 69 68 70 70 71 72 72 71 70 70 70 70 70 68
54 41 36 43 48 53 62 59 63 67 66 69 68 66 68 70 68 64 61 61 62 63 63 64 64 65 65 66 68 68 68 67 67 67 66 64 65 67 70 69 70 70 69 69 70 69 69 68 67
49 39 44 52 56 56 56 59 63 64 65 66 63 66 66 68 65 62 60 59 60 61 61 63 63 63 63 66 65 66 65 66 65 65 65 63 64 65 68 67 68 68 68 68 68 68 68 67 66
49 48 53 56 59 57 57 61 62 59 60 64 63 63 64 65 63 61 61 60 62 61 61 61 62 65 64 63 62 63 64 64 64 64 64 64 64 65 65 64 66 66 68 67 66 65 65 66 65
47 54 58 57 60 58 58 62 61 60 65 69 69 66 65 64 63 62 61 60 60 60 60 61 64 64 64 64 62 61 62 62 62 62 61 63 63 64 65 64 64 63 63 63 63 61 62 64 65
50 53 58 60 60 60 62 59 61 63 69 67 67 66 65 65 65 62 62 60 60 59 60 62 63 64 63 63 62 61 60 61 61 61 61 63 64 64 64 64 63 60 59 62 61 60 62 63 63
56 57 58 60 61 61 60 61 57 65 64 64 64 64 65 65 63 59 59 59 60 60 60 62 62 64 64 63 61 61 60 61 60 62 62 64 65 65 64 65 63 60 60 59 61 61 61 62 63
58 51 55 57 55 57 60 54 53 65 65 65 63 65 64 65 61 63 62 61 61 61 60 61 61 64 63 63 62 62 62 62 62 62 62 64 66 65 64 63 61 61 59 57 57 57 57 60 63
51 49 43 54 58 60 60 50 60 66 65 61 63 63 64 64 64 63 62 61 60 59 59 59 63 62 63 62 62 62 62 61 63 63 64 64 65 65 64 63 63 63 61 60 59 57 57 59 61
44 37 42 49 60 58 58 51 60 66 64 62 63 61 63 65 62 61 61 60 59 60 59 59 62 61 62 62 62 61 61 60 61 62 62 64 64 64 64 63 62 62 63 61 60 56 60 58 58
37 39 38 44 54 53 48 50 60 64 64 62 63 58 62 63 65 62 59 59 58 58 58 60 62 62 62 62 61 61 60 60 60 60 62 62 64 64 62 63 61 63 61 60 59 60 57 57 59
47 44 41 45 57 50 49 50 55 61 58 59 60 56 61 64 66 60 59 58 58 57 57 60 61 61 61 61 60 59 59 59 59 59 62 62 63 64 63 63 62 62 59 61 60 56 57 55 57
45 43 43 50 58 52 48 49 56 60 61 61 63 57 60 63 58 58 58 59 59 59 58 58 60 61 61 61 61 61 61 60 60 59 60 62 63 64 63 62 62 62 61 59 60 57 55 56 58
44 42 44 45 52 52 49 47 51 60 61 63 63 62 61 61 60 56 58 58 59 58 58 57 59 61 62 61 59 59 59 59 59 58 59 61 62 62 63 63 63 62 62 60 60 58 59 56 55
38 50 50 48 44 34 46 33 47 54 57 58 62 58 57 61 63 59 57 58 58 59 57 57 61 60 60 60 59 59 58 57 58 59 59 60 61 61 61 62 63 62 62 61 60 61 61 61 59
44 50 48 46 41 38 41 36 43 51 52 56 59 61 58 63 64 59 57 57 59 60 58 59 59 58 59 59 60 59 58 59 59 59 58 59 59 59 61 62 60 62 61 61 60 58 58 63 60
51 47 47 46 40 30 40 39 39 48 54 58 62 64 60 61 64 63 60 58 58 59 59 58 58 56 58 59 58 56 58 58 57 58 57 58 59 58 58 61 60 61 61 60 59 58 58 59 62
47 39 32 30 28 29 44 41 46 55 59 59 61 65 61 61 63 59 55 56 57 57 57 58 58 57 57 59 57 56 55 57 58 58 58 57 58 57 57 59 59 59 59 59 59 57 57 57 58
43 39 32 26 27 31 45 37 47 58 61 62 65 66 66 61 64 59 57 56 56 58 58 58 57 58 57 58 59 59 57 59 58 59 59 59 59 60 60 59 59 60 59 58 59 58 57 57 57
40 35 42 34 36 30 37 46 55 56 54 56 58 61 60 59 63 60 57 57 56 58 58 58 57 59 59 58 59 59 59 55 55 56 57 59 61 62 59 60 59 59 59 59 59 58 58 58 59
42 46 34 35 28 26 36 40 38 46 48 52 51 51 55 57 59 59 58 57 57 57 59 57 58 59 59 59 57 58 58 59 55 54 54 55 55 57 60 60 60 60 60 60 59 59 60 59 60
39 38 37 38 37 29 29 35 47 48 48 49 51 53 53 54 56 57 58 58 56 57 58 57 58 58 59 59 60 58 58 56 56 55 55 55 55 55 56 60 61 60 60 61 60 60 60 58 60
46 41 39 33 32 35 34 35 51 50 51 52 52 54 55 56 56 57 57 58 56 56 56 58 58 57 59 59 59 58 57 58 58 57 58 56 56 56 57 56 58 61 62 62 60 60 60 58 57

GFSSGP_sfc_temp_075.txt.gz
Temp
70 71 74 73 63 60 56 58 60 63 66 72 73 72 73 74 69 67 78 79 77 77 76 77 75 75 74 74 74 74 76 77 76 76 76 76 76 76 76 76 76 77 78 79 78 78 78 77 74
70 71 72 65 58 54 60 59 61 67 72 74 73 72 72 72 75 76 78 78 79 77 76 78 74 74 74 74 74 75 76 76 76 76 76 76 76 76 76 75 76 77 78 78 79 78 77 75 73
73 72 69 63 55 55 59 61 67 68 71 70 73 75 74 73 75 78 81 79 79 78 76 77 74 74 74 74 74 75 76 76 75 76 76 76 76 76 76 75 76 77 78 78 79 78 75 73 72
71 70 65 56 52 58 62 66 65 66 71 73 74 72 76 77 77 80 80 79 77 77 76 73 72 73 74 73 74 74 75 73 74 75 75 76 76 76 75 75 76 78 78 78 78 75 73 71 71
67 64 56 51 52 57 60 66 66 66 68 72 74 70 73 77 77 77 77 77 76 73 75 75 70 72 73 73 74 73 73 72 73 74 75 75 75 75 75 74 75 76 76 76 75 73 72 71 70
62 61 51 50 49 59 65 66 67 68 69 72 69 71 75 75 76 75 76 76 76 73 72 74 72 72 72 73 72 72 70 72 72 73 74 74 74 74 74 74 75 74 74 74 72 71 71 70 70
61 56 53 51 51 56 63 66 66 69 69 70 72 67 73 72 76 76 76 76 75 75 73 72 72 73 70 70 71 69 70 71 71 71 73 72 71 72 73 74 74 74 72 72 71 71 70 70 69
63 59 50 51 52 56 65 67 69 69 70 75 74 68 70 73 74 74 74 75 75 73 74 72 72 72 73 75 67 68 69 70 71 70 69 67 68 69 71 72 73 72 71 70 70 70 70 69 68
61 55 50 51 53 59 65 64 69 72 70 70 75 74 74 74 72 72 71 71 71 71 72 70 70 73 71 74 70 69 70 70 69 69 67 67 71 69 69 69 70 70 69 69 70 69 68 68 67
59 52 54 57 61 60 65 63 66 66 66 69 71 74 70 71 70 70 70 70 69 70 70 70 70 68 69 72 70 73 74 75 72 69 68 70 69 68 67 67 68 70 68 68 69 68 67 70 75
56 52 56 58 62 63 63 64 67 66 62 68 68 73 72 70 69 69 70 71 71 72 70 70 68 68 69 67 68 70 71 72 69 68 68 69 69 67 67 65 66 66 68 71 71 71 75 74 75
51 55 58 61 64 62 60 65 63 65 66 73 73 74 74 73 70 69 70 70 70 70 71 69 67 67 67 68 66 68 68 67 66 67 67 67 68 65 65 64 65 65 65 72 73 74 72 72 72
52 55 59 61 61 62 64 61 62 65 70 73 72 72 72 72 73 74 74 73 71 70 70 67 66 66 66 66 65 65 67 68 66 66 66 66 67 66 65 65 66 64 63 71 72 72 71 70 70
57 57 58 60 61 62 59 61 61 65 70 69 70 72 74 72 73 74 70 70 70 70 69 66 66 67 66 65 64 64 65 65 64 64 65 67 68 66 64 65 65 63 63 69 72 72 71 72 72
57 52 57 57 59 59 62 55 56 66 70 68 70 72 74 73 72 71 72 71 71 70 70 65 65 66 65 65 64 64 63 63 63 63 65 66 67 65 65 67 63 62 64 68 70 70 71 71 72
53 53 47 56 57 60 60 51 63 67 66 67 70 70 70 73 72 73 73 73 71 70 66 66 65 65 64 64 64 64 63 62 63 63 64 65 67 67 65 65 63 62 62 67 69 69 69 69 70
47 43 45 50 61 60 57 54 64 66 65 66 68 70 71 72 71 72 71 71 70 70 67 63 65 64 64 64 63 64 63 63 62 62 62 63 65 66 65 63 62 61 65 66 68 69 69 68 69
41 42 45 45 55 57 55 54 60 64 65 64 67 69 69 70 72 75 70 70 70 69 67 64 65 64 64 64 63 63 63 63 63 63 62 63 63 65 64 63 61 61 64 67 68 66 68 69 68
48 45 44 49 55 52 52 53 57 62 63 63 66 67 69 69 74 76 68 68 68 67 63 64 63 63 63 63 61 60 60 61 61 63 65 63 63 64 62 61 61 62 64 67 65 66 65 66 68
46 43 43 48 53 52 52 52 58 61 62 64 67 68 68 70 72 69 65 66 66 64 63 64 64 63 64 66 63 62 61 61 62 63 62 65 63 62 61 60 61 62 66 65 66 65 65 66 66
44 41 42 42 49 52 50 48 53 60 63 65 66 69 70 69 70 67 63 65 66 63 63 64 65 65 65 65 65 61 61 61 60 59 61 61 61 60 60 60 61 63 65 64 64 65 65 63 64
38 48 46 45 43 37 51 38 50 56 59 62 65 67 68 70 69 70 64 63 65 65 65 65 65 65 65 64 62 60 60 58 60 60 60 61 62 61 60 60 61 63 65 64 64 66 64 62 60
43 49 46 46 44 42 43 40 47 55 53 60 64 66 68 69 68 66 63 66 67 66 64 63 64 64 63 64 63 62 62 65 62 61 60 60 61 61 61 60 60 60 63 64 63 63 65 67 65
51 46 47 47 43 33 42 42 44 49 55 59 63 64 65 68 67 67 65 66 66 66 63 60 61 62 63 63 64 62 61 61 61 59 61 60 60 60 60 60 59 59 60 59 60 61 65 65 66
47 42 34 31 31 33 46 41 45 54 57 55 56 59 61 63 65 63 63 63 64 63 60 59 61 60 61 62 62 61 61 61 60 60 60 59 58 58 59 60 59 60 59 60 60 59 60 62 63
42 42 34 27 29 35 44 38 47 52 56 57 57 57 59 61 66 63 64 63 63 62 59 61 60 59 60 60 61 61 61 60 61 60 60 61 60 60 59 60 60 60 60 59 59 59 58 59 60
41 37 45 34 37 31 42 48 51 54 53 53 53 54 56 59 64 64 63 63 63 62 59 60 60 59 59 59 61 61 60 60 61 61 63 61 61 61 60 60 59 60 60 60 59 58 58 58 58
45 46 34 35 27 28 38 41 40 45 47 50 49 49 52 58 59 60 61 61 63 61 60 60 61 63 61 60 62 63 63 62 61 61 60 60 60 61 61 62 60 58 59 59 58 59 59 58 58
41 40 37 36 37 31 30 35 46 45 47 47 47 47 48 50 55 58 60 60 60 60 59 59 61 63 63 61 61 62 62 63 63 61 60 60 60 59 59 60 59 59 60 60 58 58 58 58 60
47 43 40 32 32 35 35 36 47 48 49 48 46 47 47 48 49 54 57 57 57 57 58 58 59 61 62 62 61 61 61 61 61 61 63 63 61 60 59 60 60 61 61 63 61 60 58 57 57

GFSSGP_sfc_temp_078.txt.gz
Temp
74 85 89 85 72 72 70 73 79 76 76 82 82 81 81 85 80 76 90 90 90 88 87 81 74 75 75 75 75 75 76 77 76 76 76 76 76 76 76 76 76 77 78 79 79 79 78 77 75
87 84 85 83 68 66 70 79 74 80 81 82 81 81 80 79 87 87 88 89 93 91 88 85 74 74 74 74 74 75 76 77 76 76 76 76 76 76 76 76 76 77 78 78 79 79 77 75 74
85 86 79 73 70 65 70 78 79 80 80 79 80 84 82 81 86 89 92 89 92 90 90 88 73 74 74 74 74 75 75 76 76 76 76 76 76 76 76 76 76 77 78 78 79 78 75 73 72
82 81 79 67 67 71 75 81 80 78 81 82 82 78 86 89 87 92 92 89 89 88 88 76 72 74 73 74 74 75 76 74 75 75 76 76 76 76 76 75 76 77 77 78 77 75 73 72 71
83 81 68 65 67 74 77 79 78 77 77 79 82 78 81 89 91 90 90 89 87 86 86 81 72 73 74 74 74 74 74 72 74 74 75 75 76 76 75 75 76 77 77 77 75 73 72 71 71
74 77 65 63 68 72 76 83 79 77 80 81 79 78 82 89 89 90 89 87 86 83 83 82 74 72 72 73 73 72 73 72 72 74 74 75 75 74 74 74 75 75 75 74 73 72 71 71 70
71 69 65 68 68 68 72 82 75 77 78 80 81 74 84 86 88 89 88 87 85 83 82 80 76 77 71 70 71 71 70 71 70 71 73 73 71 71 74 74 74 74 74 72 71 71 70 70 70
75 72 65 69 65 65 76 77 80 78 78 83 83 75 77 85 85 85 87 88 86 83 81 75 75 77 79 78 70 70 70 70 70 70 70 70 69 69 69 70 72 72 72 71 71 70 70 70 68
77 64 62 67 64 68 76 73 81 83 79 81 83 83 84 85 85 83 83 85 85 82 82 77 74 76 76 79 78 71 70 70 70 70 68 68 74 69 69 69 71 71 68 69 70 69 68 68 68
68 64 65 74 72 69 75 74 77 74 75 76 80 85 82 83 82 81 81 81 81 80 81 79 73 74 75 76 77 80 81 80 79 78 75 77 73 72 76 72 70 69 67 68 68 68 67 70 78
68 63 72 70 71 73 71 72 77 74 70 75 75 80 83 84 82 80 83 85 83 83 83 82 77 80 78 73 74 81 83 81 77 77 75 73 74 75 74 70 71 69 69 68 69 71 78 78 77
60 67 68 72 72 71 69 74 72 74 74 79 81 83 83 83 82 81 82 84 85 83 83 81 76 76 73 73 72 75 79 81 76 78 75 72 72 71 73 70 72 66 68 66 70 75 75 75 78
61 66 70 70 70 70 72 69 70 72 78 82 82 81 80 82 84 86 87 87 86 83 82 81 73 71 71 70 71 70 76 73 72 74 77 77 73 74 70 69 68 66 66 67 71 75 73 76 79
65 65 67 68 68 69 65 68 71 73 79 78 79 79 81 83 85 88 88 86 85 84 83 81 75 73 75 73 69 69 72 73 70 70 73 76 72 69 68 67 67 66 65 66 73 75 73 77 79
64 58 64 66 68 66 70 64 66 75 78 76 78 79 82 84 88 86 88 86 86 84 84 77 72 71 73 75 70 67 67 69 70 70 71 70 70 68 67 67 65 65 65 65 71 74 75 77 79
57 59 53 65 65 67 66 57 71 77 75 75 77 79 81 84 86 89 88 87 86 84 81 77 72 71 74 70 69 67 67 67 69 68 68 69 70 69 68 66 64 64 62 64 69 74 74 76 77
55 49 53 58 67 65 63 60 69 74 73 72 76 79 81 83 86 88 88 87 86 84 80 76 73 72 71 69 68 67 67 67 65 65 65 67 70 70 68 66 66 64 61 62 70 74 75 74 76
50 51 54 52 59 60 59 61 68 72 73 72 75 77 79 81 84 88 87 86 85 83 80 76 70 70 70 70 67 66 66 65 64 63 64 65 64 65 66 66 63 65 61 61 69 72 73 76 76
54 48 48 54 60 56 56 60 66 70 71 71 73 75 77 80 86 88 87 83 82 81 79 76 68 69 68 66 63 63 63 64 63 65 66 65 65 63 64 63 62 63 61 61 65 73 72 72 74
52 49 48 54 58 57 58 59 66 68 70 72 73 74 77 80 83 85 85 81 79 78 78 75 72 69 69 69 67 65 63 64 65 65 65 66 69 65 63 62 61 61 61 61 67 70 71 72 73
51 49 50 50 54 58 57 57 63 68 69 71 74 76 78 79 81 84 82 79 78 77 76 76 74 74 72 72 71 71 65 65 63 63 64 65 69 64 63 62 61 61 62 61 67 71 71 68 72
46 54 51 50 49 48 58 46 59 64 66 68 71 74 77 79 82 84 84 78 77 77 77 77 76 72 74 75 71 69 65 60 66 66 61 66 65 61 61 62 61 61 63 63 67 72 71 71 68
49 53 51 51 49 49 51 48 58 62 60 65 71 74 77 80 83 83 84 82 80 79 76 76 75 72 75 74 72 71 65 64 69 65 61 62 62 61 60 60 60 61 63 66 69 69 69 71 71
55 51 53 53 50 39 50 49 56 59 60 65 69 72 74 77 79 82 83 80 79 78 75 73 72 70 73 73 71 67 65 65 67 63 63 60 60 60 60 60 60 61 62 67 67 68 69 70 70
52 47 40 39 36 39 52 49 54 63 62 63 64 68 71 73 75 79 77 76 76 74 68 68 72 67 69 72 71 70 70 67 65 67 63 61 60 59 59 59 60 59 60 64 67 65 66 67 68
48 47 40 32 37 44 52 44 56 60 63 64 66 67 70 72 74 77 76 75 75 73 63 65 68 65 67 70 71 68 68 65 65 66 68 66 63 63 64 60 59 60 59 60 61 61 61 64 64
47 42 52 41 44 38 48 55 59 62 61 63 62 62 61 66 70 74 74 75 74 72 61 63 65 65 66 67 70 69 67 67 65 65 65 64 65 65 62 60 60 60 60 59 59 58 59 59 61
51 54 37 40 31 34 47 49 49 51 54 58 57 55 54 56 64 70 71 70 73 67 63 64 67 65 65 66 65 68 68 68 66 65 65 69 67 65 64 61 59 59 60 61 60 59 60 58 58
46 44 43 38 41 37 38 38 44 45 48 48 52 50 48 49 50 64 67 68 66 63 62 61 66 65 63 63 63 67 68 67 65 65 65 65 64 64 62 64 63 61 59 59 59 59 59 58 59
55 49 47 38 36 38 35 42 49 48 47 47 47 46 47 47 48 48 57 60 60 60 60 61 66 67 67 63 63 65 66 67 67 65 64 64 63 63 64 64 63 61 59 59 59 58 58 57 57

GFSSGP_sfc_temp_081.txt.gz
Temp
75 86 93 89 73 75 72 78 89 83 82 90 88 86 86 90 84 78 96 95 97 94 90 82 74 75 75 75 75 76 76 76 76 76 76 76 76 76 76 76 76 77 78 79 78 78 78 77 75
88 90 89 83 69 67 73 84 82 84 90 88 87 86 85 82 94 93 93 95 96 96 91 88 74 74 75 75 75 75 76 76 76 76 76 76 76 76 76 76 76 77 78 78 79 79 78 75 74
82 92 81 75 71 66 72 85 86 88 88 86 85 90 87 85 94 95 97 95 98 96 94 89 73 73 74 74 74 75 75 76 76 76 76 76 76 76 76 75 76 77 78 78 78 78 75 73 73
86 85 82 70 69 78 79 85 90 85 86 88 89 81 91 95 91 96 97 96 95 95 95 74 72 73 74 74 74 74 74 74 75 75 76 76 76 76 76 75 76 77 78 78 78 76 73 72 71
88 83 70 69 71 78 84 86 87 82 85 85 86 81 85 95 98 97 96 95 93 92 93 82 72 73 73 74 74 74 74 74 74 75 75 75 76 76 75 75 75 76 77 77 75 73 72 71 71
76 79 67 66 72 80 84 88 86 83 85 85 84 83 85 96 96 96 95 93 92 89 89 85 74 73 73 73 73 73 73 73 73 74 74 75 75 75 75 75 75 76 75 74 73 72 71 71 71
73 73 67 70 72 77 82 86 82 83 82 84 89 78 87 92 94 97 95 93 91 89 86 84 80 77 71 71 71 71 72 72 71 71 72 74 72 70 72 74 74 75 74 72 71 71 71 71 70
79 75 68 72 70 73 85 82 86 83 82 91 91 78 80 88 91 91 93 93 90 86 85 83 81 81 81 80 70 71 71 70 71 73 71 70 70 69 70 68 70 71 72 73 71 69 69 69 69
82 67 64 69 71 76 83 80 87 89 85 87 87 86 89 89 91 88 89 89 89 86 85 78 78 81 82 80 79 71 71 71 70 72 70 69 76 74 71 67 67 69 69 71 69 69 68 67 68
73 66 67 78 80 78 81 80 81 81 79 79 83 89 90 88 88 86 86 85 86 85 85 81 76 80 82 85 78 81 81 81 80 81 79 79 76 75 71 67 66 68 68 68 68 67 67 68 74
73 65 74 78 81 80 77 78 82 79 75 80 78 82 87 87 87 85 87 88 87 88 87 86 78 80 80 82 78 83 82 82 79 80 78 77 74 72 72 68 70 70 69 70 67 67 73 76 77
68 73 75 77 79 77 73 78 76 78 78 85 85 85 87 86 85 86 86 88 89 89 88 87 84 83 82 84 80 84 82 78 81 79 77 74 74 72 69 75 73 71 71 68 67 68 74 75 76
70 72 75 76 77 75 76 73 73 76 82 85 85 85 84 85 86 89 91 91 91 90 88 87 85 83 80 74 73 76 83 83 78 79 77 75 75 72 71 73 71 74 72 67 66 67 73 76 77
72 72 72 74 74 74 70 71 74 76 82 81 82 83 85 85 86 89 91 90 89 90 89 87 82 80 77 73 72 73 77 77 78 77 78 76 75 74 72 69 72 71 69 67 66 67 71 75 75
70 63 68 70 72 69 72 66 69 78 80 79 80 82 84 86 88 89 91 91 92 91 91 85 80 79 79 78 74 75 72 72 71 73 75 76 76 74 74 73 69 68 66 65 65 65 71 78 76
62 63 57 69 72 72 70 58 73 81 79 78 80 81 83 85 87 91 92 93 95 92 88 86 82 78 79 79 75 72 73 73 70 71 71 75 76 72 68 67 66 67 64 64 64 64 71 71 78
58 50 58 62 72 68 68 62 74 79 77 77 79 81 82 83 87 91 93 94 94 93 87 84 80 77 77 78 71 70 70 68 67 70 69 72 71 71 67 69 65 65 64 63 63 64 72 74 72
53 56 59 59 65 65 63 63 69 74 75 75 77 78 80 83 86 91 92 93 93 92 88 84 79 78 78 76 71 73 68 67 67 68 69 71 70 67 68 66 64 65 63 62 63 64 72 75 74
58 55 54 60 64 61 59 62 66 71 72 72 75 76 79 82 87 91 91 91 90 89 86 82 78 78 77 75 71 70 69 70 68 68 67 66 68 69 68 64 63 63 63 62 63 63 68 69 72
55 52 50 58 64 60 60 61 67 70 71 74 75 76 78 81 85 87 90 89 86 86 84 82 78 77 77 77 75 73 70 72 72 71 69 67 67 67 63 64 62 64 62 61 61 62 64 70 72
55 52 53 53 61 64 60 58 63 70 71 74 77 79 81 81 82 85 87 87 84 84 82 82 79 77 76 77 75 73 67 70 67 69 69 69 70 70 67 63 62 62 61 60 62 62 65 66 69
50 60 57 54 53 48 64 47 61 67 70 73 75 76 78 80 83 85 87 86 83 83 83 82 80 78 77 76 73 69 68 66 71 71 70 70 70 69 66 62 62 61 61 60 62 63 64 67 67
53 60 55 54 50 51 54 51 58 68 65 70 74 76 78 80 82 84 86 89 87 84 82 81 80 79 78 77 77 74 73 72 73 72 67 65 66 63 62 62 61 61 61 61 61 62 64 68 68
60 54 54 55 51 41 51 53 56 64 64 68 73 76 79 81 83 86 88 90 87 85 82 79 79 78 78 78 77 75 73 71 71 69 65 62 62 61 60 60 61 61 61 60 61 63 67 69 70
55 49 40 42 41 40 57 52 57 66 66 66 67 71 74 77 79 82 85 87 86 82 79 78 79 75 78 77 76 75 74 71 67 68 66 61 59 59 59 59 59 59 61 62 63 63 66 68 68
53 50 40 33 36 40 53 47 54 66 69 69 71 70 70 70 75 80 84 85 83 81 78 78 78 73 77 76 75 75 75 73 73 72 70 66 62 61 60 59 59 59 60 61 62 66 67 67 67
51 46 55 44 47 41 48 57 64 64 63 66 65 66 64 64 66 74 82 81 82 79 71 71 76 68 73 76 76 74 72 71 70 70 69 67 67 65 63 60 58 58 59 59 60 60 64 66 65
55 56 40 44 32 34 47 50 43 51 55 57 56 56 56 55 55 62 78 79 80 73 68 66 71 66 70 75 75 71 71 71 70 69 68 67 67 67 65 62 60 58 58 59 58 59 59 59 59
51 47 48 46 44 36 36 39 48 47 50 49 52 53 49 47 47 53 58 74 73 66 64 64 65 66 66 67 71 68 67 70 69 68 69 68 67 66 64 64 61 59 58 58 58 59 58 57 58
58 52 49 38 40 44 42 41 49 51 49 49 51 49 46 45 44 46 49 52 62 61 61 62 65 64 65 67 67 67 67 67 68 67 69 69 67 66 64 63 64 61 60 59 58 57 58 58 58

GFSSGP_sfc_temp_084.txt.gz
Temp
74 80 85 83 67 68 64 70 82 81 85 90 91 85 83 87 81 72 93 94 88 85 79 78 74 75 76 76 76 76 76 76 76 76 76 76 76 76 76 76 76 77 78 79 79 79 79 77 75
82 86 84 77 62 58 65 78 78 85 90 89 87 85 83 81 93 90 89 94 94 88 82 80 74 74 75 75 75 75 76 76 76 76 76 76 76 76 76 75 75 77 78 78 79 79 78 75 74
78 87 75 69 64 59 64 77 82 89 88 86 84 90 86 84 94 93 93 93 94 89 86 81 73 74 74 74 74 75 75 75 75 75 76 76 76 76 76 75 75 77 78 78 79 78 76 73 72
79 78 77 64 62 71 73 78 84 86 88 88 86 82 90 95 92 95 94 94 91 90 89 72 72 73 74 74 74 74 74 74 74 74 75 76 76 77 76 75 76 77 77 77 78 76 73 72 72
81 78 63 62 64 72 79 83 86 83 84 85 86 80 84 94 97 95 92 93 88 86 79 77 71 72 73 74 74 74 74 73 74 74 74 75 75 76 75 75 76 76 76 77 76 74 72 72 71
70 74 61 59 65 74 80 85 85 84 85 85 84 82 84 95 95 93 90 88 87 84 80 76 73 72 72 73 73 73 73 73 73 74 74 75 75 74 74 75 75 76 75 75 74 72 71 71 71
69 67 61 63 66 71 78 88 84 83 83 83 88 79 86 91 93 93 90 87 85 84 81 76 75 74 72 71 71 72 73 72 73 73 72 73 71 70 72 72 70 71 73 73 71 71 71 71 71
74 70 62 66 66 68 81 84 87 83 81 90 91 78 79 87 90 89 90 89 86 82 81 78 76 75 74 73 70 71 72 72 72 72 71 70 71 71 70 69 69 68 68 71 71 70 70 69 69
79 62 58 62 65 70 81 79 87 89 84 86 87 86 89 89 90 86 84 85 84 81 80 78 77 77 77 77 74 71 72 71 70 71 70 68 72 70 70 69 69 69 67 67 70 69 68 67 67
69 61 62 71 74 74 79 80 81 81 80 81 83 88 90 89 86 83 81 80 81 79 79 77 75 77 77 81 75 75 75 74 73 74 72 73 72 70 69 67 68 68 67 67 68 68 67 67 67
69 62 69 73 76 78 76 76 81 77 74 79 78 81 85 85 82 80 82 83 83 82 81 77 75 77 76 77 76 76 76 76 74 74 74 72 71 69 66 65 66 67 67 67 67 66 68 69 68
65 71 73 74 77 76 73 77 75 76 76 84 84 85 85 84 81 80 80 81 84 84 83 79 76 76 76 77 76 76 76 75 74 74 73 70 68 68 67 67 67 67 67 67 67 66 68 69 70
67 71 74 76 75 76 76 72 72 74 80 84 84 84 83 82 84 85 85 85 85 85 83 82 78 77 77 76 75 75 76 74 73 73 73 72 69 68 69 69 68 68 68 67 66 66 67 68 70
71 72 72 74 73 74 70 71 73 75 80 79 80 80 82 82 83 84 83 83 83 85 84 82 80 79 77 74 72 72 73 74 74 72 72 72 70 68 70 69 69 68 67 67 65 65 66 65 67
69 63 67 68 70 68 72 65 66 75 78 76 78 79 81 82 85 83 84 83 85 86 87 80 78 77 74 73 72 71 72 72 73 72 72 72 71 69 69 68 68 67 68 66 65 64 64 64 66
62 62 53 65 69 71 69 57 70 78 77 75 77 78 79 81 83 85 84 86 88 86 84 82 79 75 73 73 71 72 70 70 69 70 70 71 72 70 68 66 66 67 65 64 64 63 63 63 64
58 49 54 59 70 69 68 60 71 77 76 75 76 77 79 80 83 84 85 86 88 88 83 80 76 74 74 74 71 70 69 69 68 68 69 70 71 70 67 67 67 65 64 63 63 63 63 62 63
50 53 56 56 64 66 63 62 68 73 72 71 72 75 77 78 81 84 84 87 89 88 85 79 76 73 74 72 69 68 66 68 68 67 66 68 68 68 67 65 65 65 63 63 63 62 62 62 65
57 54 51 58 64 60 59 60 64 69 70 70 71 73 74 76 81 84 84 85 84 82 82 78 74 72 73 68 67 66 63 65 65 66 66 67 67 67 66 64 64 64 63 63 63 61 61 61 65
57 53 52 57 62 60 59 59 65 68 69 71 71 72 74 75 78 81 81 82 81 81 81 77 75 74 74 71 70 70 69 67 67 67 67 67 67 67 65 64 63 63 62 62 62 61 60 61 64
56 52 51 52 59 61 57 55 61 67 69 71 73 74 75 75 76 79 81 79 79 79 79 78 75 75 74 73 72 70 69 67 67 65 65 66 67 66 65 64 63 62 62 61 62 61 61 59 61
49 60 58 55 52 43 58 41 56 63 67 70 71 71 72 75 78 80 81 81 79 79 79 79 77 76 74 74 71 67 65 64 66 65 66 67 67 66 65 63 63 63 62 61 61 62 61 60 61
53 61 57 55 50 48 49 45 53 63 63 68 71 73 72 75 77 78 80 83 81 79 78 78 76 75 74 74 71 68 65 67 67 66 65 65 64 65 65 63 62 61 61 61 61 61 61 60 61
61 55 55 53 49 38 46 47 48 55 59 63 69 72 72 74 76 79 82 83 82 80 78 77 75 74 74 73 70 68 67 67 66 64 63 62 61 61 62 62 61 62 61 60 60 61 61 61 61
56 49 38 36 38 35 47 43 52 58 62 65 66 66 67 67 67 69 75 82 82 77 76 76 75 73 73 72 72 70 69 67 67 65 63 61 59 59 59 60 60 60 60 61 60 60 60 61 60
52 49 38 29 32 37 49 36 49 62 63 61 61 61 62 61 60 62 64 60 80 77 76 75 75 74 73 72 72 71 69 67 67 66 64 62 60 60 60 59 59 59 60 60 60 61 61 61 61
51 45 54 42 45 38 44 48 51 53 57 58 56 57 55 55 55 57 59 60 79 77 74 73 75 74 74 72 71 69 68 67 65 65 65 64 62 62 60 59 58 59 59 60 60 60 60 61 61
55 58 40 37 29 31 43 45 38 43 47 52 52 52 52 51 50 52 52 54 71 74 70 69 70 72 71 70 71 70 67 67 66 65 64 64 63 62 61 59 58 58 58 58 58 58 59 59 59
51 47 48 46 42 32 29 33 41 44 48 49 52 51 48 46 45 46 47 50 55 66 64 64 66 65 67 65 67 67 66 65 66 66 65 65 64 63 62 61 59 57 57 58 57 57 57 57 56
57 52 50 37 36 41 39 38 49 52 53 53 50 50 47 44 43 44 44 46 48 49 57 62 62 62 63 66 65 63 64 64 64 64 65 64 63 63 62 61 60 59 58 57 57 57 57 57 56

GFSSGP_sfc_temp_087.txt.gz
Temp
64 66 66 65 51 47 43 53 66 68 71 72 78 76 72 73 73 62 79 79 77 75 75 75 74 75 75 75 75 75 75 76 76 76 76 76 76 76 76 76 76 77 78 79 78 78 78 76 75
67 73 66 59 46 38 45 62 64 71 77 76 80 77 75 72 82 80 77 81 78 76 74 74 73 74 75 75 75 75 76 76 76 76 76 76 76 76 75 75 75 77 78 78 79 79 77 75 74
69 74 57 51 44 44 45 61 68 75 80 76 73 77 78 76 82 82 82 81 80 76 76 75 73 73 74 74 74 74 75 75 75 75 76 76 76 76 75 75 75 77 77 78 79 78 76 73 72
67 62 60 47 45 53 59 65 70 73 76 75 73 73 78 85 84 84 85 83 79 79 77 71 72 73 73 74 74 74 74 73 74 74 75 76 76 76 75 75 75 77 77 78 78 76 73 72 72
63 57 47 44 50 57 66 71 73 73 75 76 77 72 73 80 86 86 83 83 77 74 73 72 71 72 73 73 74 74 73 73 73 74 74 75 75 76 75 74 75 76 76 76 76 74 72 72 71
53 55 42 45 52 61 68 72 73 75 77 77 74 74 73 82 82 82 81 77 75 72 72 72 72 72 72 73 73 72 73 73 73 73 74 74 74 74 74 74 73 75 74 73 74 72 72 71 71
51 48 46 48 53 60 68 75 71 73 77 74 79 71 74 77 80 81 78 78 75 73 71 69 70 72 71 70 71 71 72 72 72 72 73 73 72 71 72 72 71 69 69 69 71 71 71 71 71
58 52 48 52 54 57 70 74 76 74 71 81 80 68 67 74 80 79 77 77 76 72 70 69 68 69 68 68 70 71 71 71 72 72 71 71 70 72 70 70 70 70 69 68 69 69 71 71 69
64 50 48 52 56 60 72 70 76 76 75 76 77 78 77 79 80 77 76 72 73 73 71 70 69 69 68 68 70 71 71 71 71 71 69 68 68 68 69 67 68 69 67 68 68 68 68 67 68
54 50 52 61 64 63 69 69 70 71 70 72 72 77 78 79 76 74 73 72 69 71 70 71 70 70 70 73 68 68 70 68 68 69 67 68 67 66 67 66 68 68 68 68 68 67 67 66 65
54 52 60 64 68 69 67 68 69 65 65 68 68 73 75 75 73 72 72 73 72 74 73 71 71 70 70 70 68 68 68 68 68 68 67 67 67 66 67 66 67 66 67 66 67 66 66 66 65
53 62 63 65 69 68 66 68 67 66 67 72 73 72 75 73 70 70 71 72 73 75 74 72 73 71 70 68 69 69 69 68 68 68 68 67 66 64 64 63 63 65 66 66 66 65 66 66 66
58 61 65 67 67 66 68 66 66 64 70 72 75 76 71 71 72 72 73 74 76 73 75 72 72 71 71 68 67 67 68 69 68 67 68 67 65 65 64 62 63 65 66 66 65 65 65 66 67
62 62 62 63 62 63 63 62 62 67 69 71 72 73 74 73 72 72 71 71 74 76 75 73 72 73 72 68 67 66 67 67 67 67 68 67 66 65 65 64 64 64 65 66 66 65 64 65 66
62 54 58 59 60 61 64 58 60 68 69 69 71 73 73 75 76 71 75 72 75 76 75 72 72 72 71 68 67 66 66 67 66 67 67 67 67 66 64 64 65 65 65 65 64 63 63 64 65
52 52 44 54 60 63 58 50 63 69 68 68 71 73 73 74 74 77 73 77 78 76 74 74 75 71 69 67 66 65 65 65 65 65 66 67 66 68 66 64 64 64 64 64 63 63 62 63 63
46 39 44 51 61 60 58 53 62 67 68 65 64 64 67 73 74 75 77 77 81 75 73 74 72 69 68 67 66 64 66 64 64 64 65 66 66 65 64 64 63 64 64 63 62 61 63 62 62
39 41 42 43 51 56 52 52 60 63 64 64 64 68 69 69 70 78 78 78 80 77 73 74 72 69 67 66 64 63 66 65 63 63 64 68 66 66 63 62 62 63 62 61 61 62 62 62 62
50 47 45 49 55 53 52 52 56 62 64 65 64 67 68 70 73 74 75 79 75 75 73 72 70 68 67 65 62 62 62 64 62 62 63 64 64 64 62 62 64 63 62 62 62 62 61 61 61
50 46 44 49 55 54 51 50 54 60 62 63 65 67 68 71 73 75 74 73 73 71 72 71 70 68 66 66 65 61 60 64 61 61 62 66 63 63 62 63 63 62 62 62 62 61 60 60 61
49 46 46 47 52 54 50 48 51 59 62 66 69 70 70 69 68 75 73 71 69 72 71 69 69 69 66 65 65 63 61 60 59 60 61 64 65 63 63 63 63 63 63 62 61 62 61 59 60
44 53 53 51 46 37 48 34 48 55 58 64 65 68 68 70 72 71 72 71 68 71 72 70 69 69 67 66 64 63 62 59 59 61 63 61 62 63 63 63 63 63 63 62 62 62 61 60 59
48 55 51 48 44 40 44 37 44 54 53 60 55 61 66 66 62 67 70 73 71 74 71 70 69 69 69 67 65 62 59 59 59 60 60 61 62 62 62 62 62 62 62 62 62 61 60 61 60
56 51 48 46 42 32 42 38 39 47 52 55 55 56 56 56 57 59 60 61 64 72 72 70 68 69 68 67 65 63 60 60 59 59 59 59 60 61 61 62 62 62 62 61 62 62 61 60 60
49 41 29 28 28 29 47 40 42 47 51 53 53 53 53 53 53 53 53 53 56 58 70 69 68 67 68 65 65 64 62 60 59 60 59 59 58 58 59 60 60 61 61 61 62 61 61 60 60
44 42 29 24 26 32 46 36 41 44 53 55 55 54 52 50 50 50 50 50 52 59 68 69 66 66 66 65 65 66 63 62 61 62 60 59 60 60 59 59 60 60 61 60 61 60 60 61 59
45 39 48 37 39 32 39 45 48 49 49 50 52 51 47 46 46 47 49 50 51 63 67 66 67 67 66 66 66 65 64 63 60 60 60 60 60 60 59 59 59 60 59 59 60 60 60 60 59
50 51 32 33 26 26 37 37 35 41 46 48 48 46 45 44 44 46 46 47 50 52 59 60 66 66 66 67 66 65 64 62 62 63 61 59 60 61 59 58 58 58 59 59 59 59 59 60 59
44 42 42 40 36 27 26 31 41 42 46 46 46 46 42 42 42 43 43 45 47 49 51 53 60 62 65 64 64 64 64 64 64 63 62 61 60 60 59 59 58 57 57 58 59 59 59 58 58
48 44 43 32 32 35 33 33 46 47 48 49 46 45 42 41 41 41 41 42 43 45 46 49 52 60 62 63 62 61 63 63 62 62 62 62 61 60 59 59 58 58 57 57 57 57 58 58 57

GFSSGP_sfc_temp_090.txt.gz
Temp
62 63 64 63 50 44 39 49 57 61 62 69 74 71 70 70 71 61 74 76 74 72 74 74 73 75 75 75 75 75 75 76 76 76 76 76 76 76 76 76 76 77 78 79 79 78 78 77 75
64 69 63 55 43 37 41 51 58 65 69 74 77 75 71 70 76 72 72 75 76 74 73 73 73 74 74 74 74 75 75 75 75 75 75 76 76 75 75 75 75 77 78 78 79 78 77 75 73
66 70 55 49 40 40 42 54 63 67 72 72 71 75 74 72 76 76 77 76 75 73 74 74 73 73 74 74 74 74 74 74 75 75 75 76 76 76 75 75 75 77 78 78 79 78 75 73 72
64 60 55 44 42 47 51 60 61 65 70 73 73 72 75 79 80 79 78 76 73 73 74 71 71 72 73 74 74 74 73 73 73 74 75 75 76 76 75 74 75 77 77 78 78 76 73 72 72
59 52 43 38 43 51 58 64 66 66 68 72 72 71 71 77 81 79 77 77 73 72 71 71 70 72 73 73 73 73 73 73 73 73 74 75 75 75 75 74 75 76 75 76 76 75 72 72 72
52 50 38 40 47 55 60 64 64 68 72 72 69 70 70 78 79 78 77 75 74 70 70 70 72 72 72 72 72 72 72 72 72 73 73 74 74 74 74 74 73 73 73 72 73 71 72 71 72
48 43 39 40 46 52 62 66 64 68 69 70 74 67 68 72 77 77 76 73 71 70 69 69 70 71 70 70 70 70 71 71 72 72 72 73 72 72 73 73 73 72 71 71 71 70 71 72 70
53 47 40 43 49 48 62 66 68 67 66 76 77 66 63 72 75 73 73 71 70 70 69 68 68 68 68 69 69 70 70 70 71 71 71 71 71 72 72 71 71 70 70 70 70 69 69 72 70
57 43 39 43 49 54 66 64 69 70 68 71 73 73 75 76 75 72 69 68 68 68 67 68 67 67 67 67 69 70 71 70 70 70 70 68 69 69 69 69 70 68 69 69 69 69 68 68 68
51 42 46 55 57 57 63 64 65 65 66 68 69 73 77 75 74 71 68 67 67 67 67 67 67 67 67 70 67 67 69 68 68 68 68 67 66 66 67 67 68 67 67 68 68 68 67 66 66
49 48 55 58 61 62 62 63 68 64 61 65 65 68 71 73 70 69 70 71 70 70 68 68 68 68 68 69 66 66 68 67 66 66 66 65 66 67 65 64 66 65 67 65 66 66 66 66 65
49 57 59 60 64 62 60 65 63 62 64 70 69 69 68 71 70 66 67 68 71 69 70 69 69 69 69 68 67 66 67 66 66 66 66 66 66 66 65 66 66 65 64 64 64 64 66 65 65
52 57 60 62 62 63 64 61 61 62 65 68 69 70 68 67 69 71 69 68 69 70 70 70 70 70 70 68 67 67 67 67 66 65 67 67 66 64 65 64 66 65 66 66 63 64 65 65 65
58 58 57 59 59 59 58 57 56 62 65 66 66 67 68 68 68 66 69 69 67 72 71 70 70 71 71 68 68 67 67 67 66 65 66 66 65 63 63 62 64 66 66 66 64 63 64 65 65
57 50 53 54 55 55 57 55 55 62 63 63 66 69 70 72 70 67 68 69 72 69 73 70 70 70 70 68 68 67 66 66 66 66 66 66 64 64 63 62 62 64 66 65 65 63 63 63 64
50 47 40 50 56 58 54 47 59 64 63 63 66 68 69 70 72 75 70 67 72 73 71 71 72 70 69 69 68 66 65 66 66 66 66 66 65 65 64 63 62 63 65 65 64 63 62 61 62
42 35 41 46 55 54 52 48 57 61 63 59 61 60 63 65 68 70 75 71 72 74 68 70 71 69 69 67 68 66 65 64 64 65 65 65 65 65 64 63 64 63 64 64 63 62 62 61 61
35 37 37 39 46 51 49 48 55 58 57 59 58 58 60 64 66 73 74 76 76 77 69 71 71 69 68 67 65 64 64 64 65 64 65 65 65 64 64 63 63 64 64 63 62 61 61 61 62
45 42 41 46 52 47 47 48 53 58 55 56 59 61 64 67 71 69 72 71 74 74 68 71 69 67 67 65 63 63 63 63 62 63 63 64 64 64 64 62 63 64 62 62 61 61 60 60 62
45 42 41 48 52 50 50 49 55 55 55 59 61 61 63 67 71 72 70 68 67 67 70 70 68 66 68 66 67 64 63 62 64 61 61 62 62 63 63 63 62 63 61 62 61 61 60 60 61
45 42 42 44 49 48 44 45 50 54 56 59 62 61 57 57 67 71 73 66 66 63 67 69 68 67 68 66 62 61 59 59 61 61 59 61 62 62 62 63 63 63 62 61 62 61 61 59 59
42 51 49 46 41 35 45 32 44 50 54 57 59 52 53 53 55 63 61 61 60 62 70 70 69 68 66 64 63 62 62 60 62 63 59 60 61 61 62 63 63 63 63 62 61 61 61 62 58
46 52 48 45 39 36 41 33 39 49 44 46 51 52 52 52 52 52 52 54 56 63 69 70 68 66 65 65 63 62 60 59 59 59 59 59 59 60 62 63 63 62 62 62 62 61 61 61 60
52 47 45 42 38 30 39 35 35 40 42 46 50 51 50 50 50 51 53 53 52 54 65 68 67 65 65 65 63 62 60 58 59 59 58 60 60 60 61 62 62 62 62 62 62 62 61 61 61
47 39 28 26 25 26 42 37 39 43 47 48 49 48 48 48 47 48 50 50 50 52 55 66 66 63 64 63 63 62 61 60 60 59 58 59 60 60 61 61 61 61 62 62 62 61 61 61 60
42 40 29 23 24 31 42 31 38 47 50 51 51 49 47 45 46 47 48 48 50 52 57 65 64 62 63 62 62 62 61 61 60 59 60 59 59 59 59 60 61 61 61 61 62 61 61 60 60
42 36 45 33 36 29 34 38 45 50 49 49 48 47 44 44 44 45 46 46 48 49 53 60 64 64 62 63 62 61 61 60 59 59 59 59 60 60 59 58 59 59 60 60 60 60 60 60 60
47 47 31 29 23 23 32 37 36 42 45 49 46 43 41 42 43 43 43 44 46 48 50 55 60 62 63 63 63 62 62 61 61 59 59 59 59 60 59 59 58 59 59 59 59 59 60 59 59
37 36 37 36 32 25 23 27 42 42 45 46 44 42 38 39 40 41 41 43 44 46 47 50 53 60 60 61 61 61 61 62 62 60 59 60 59 59 59 59 58 57 58 58 58 58 58 59 58
45 39 38 29 28 31 29 32 47 46 48 44 41 41 39 38 39 40 40 40 41 41 44 46 48 51 59 60 61 61 62 61 61 60 61 60 59 59 59 59 58 58 57 57 58 57 58 58 57

GFSSGP_sfc_temp_093.txt.gz
Temp
61 62 62 61 49 42 37 45 52 52 57 64 69 66 67 67 68 60 71 74 73 72 73 73 73 74 75 75 75 75 75 76 76 76 76 76 76 76 76 76 76 77 78 79 78 79 78 78 76
62 66 61 52 42 35 40 47 54 58 65 69 71 70 66 68 73 71 71 73 74 73 73 73 73 74 74 74 74 75 76 76 76 76 76 76 76 76 75 75 75 77 78 79 78 78 77 75 74
64 66 55 48 38 37 42 51 57 61 67 66 66 70 71 70 73 73 74 74 73 73 73 73 73 73 74 74 74 74 75 75 75 75 75 75 76 76 75 75 75 77 77 78 79 79 77 74 72
62 59 53 42 40 43 49 53 56 61 65 66 65 65 73 78 75 77 74 74 72 71 73 71 72 73 73 73 73 74 73 73 74 74 75 75 75 75 75 74 75 77 77 78 78 77 74 72 71
56 51 41 36 39 46 54 59 60 60 62 66 69 65 68 77 77 75 73 74 71 69 70 71 71 72 73 74 73 73 73 73 73 73 74 75 75 75 74 74 75 76 75 76 76 75 73 72 71
50 48 37 36 43 51 56 58 59 62 65 67 66 66 68 73 73 74 73 72 72 69 70 71 72 72 72 72 72 72 72 72 72 73 73 74 74 74 74 74 74 73 74 73 74 73 72 72 71
47 42 37 37 43 48 57 62 59 62 63 64 69 62 67 70 72 73 71 69 69 69 69 69 70 71 71 70 70 70 71 71 71 72 72 73 72 72 73 73 73 73 72 72 72 72 72 72 71
51 45 37 42 45 46 57 61 63 63 61 72 70 62 63 69 71 69 68 67 66 66 67 68 69 70 70 69 69 69 70 70 70 71 71 71 71 72 72 72 72 72 71 72 72 71 70 71 70
53 41 34 42 47 49 61 58 62 66 65 66 68 67 71 71 71 68 66 66 65 66 65 68 69 69 70 70 69 70 70 70 70 70 70 68 69 69 70 69 71 71 69 70 70 69 69 69 68
48 38 43 51 53 53 57 58 61 60 62 63 65 70 75 73 70 66 65 64 65 65 65 66 67 68 67 69 68 68 69 69 68 68 68 68 67 66 67 68 69 69 68 68 68 67 67 68 66
47 45 51 55 58 56 55 58 64 59 58 62 63 65 69 72 68 64 63 66 68 68 66 66 66 66 67 68 68 68 69 66 66 67 66 66 66 67 64 65 65 64 66 64 66 66 65 65 66
46 52 55 53 59 56 56 60 58 60 61 66 68 66 66 69 69 67 66 64 65 66 67 67 66 66 66 67 67 68 69 67 66 65 65 66 66 66 65 65 65 63 65 64 65 65 65 66 65
49 53 56 58 58 57 59 56 57 58 64 64 65 66 63 65 67 68 68 69 66 65 68 67 67 66 67 66 66 66 67 67 66 64 66 68 66 66 66 66 65 64 65 63 62 64 64 64 65
54 54 54 54 55 55 55 54 52 58 64 62 61 62 64 65 63 65 66 66 66 70 69 68 67 68 68 67 66 66 66 66 65 65 68 67 66 65 66 64 64 66 66 64 62 63 63 63 65
55 48 50 52 51 53 55 51 50 59 59 57 59 63 64 64 64 63 67 68 69 69 72 68 68 69 68 68 67 66 66 66 65 65 67 67 66 64 64 64 64 65 66 65 61 61 62 63 64
48 45 39 47 52 55 50 45 54 60 57 57 59 62 64 63 65 66 64 67 71 66 69 70 71 69 68 68 67 67 66 66 66 65 66 66 64 63 62 63 63 64 64 64 63 62 62 63 64
40 34 38 44 51 50 48 46 52 58 58 56 58 57 60 63 64 65 67 66 68 69 66 69 69 69 68 68 67 67 66 66 66 65 66 66 64 63 62 62 63 64 63 63 63 63 63 61 61
34 35 31 35 46 45 45 47 55 55 53 55 54 55 58 59 62 67 69 68 68 69 68 70 69 69 69 67 65 65 64 64 65 65 65 65 65 64 64 64 63 63 63 63 63 62 62 61 61
42 39 37 41 47 44 46 47 50 54 50 51 56 58 58 59 62 64 66 69 69 64 66 69 68 68 68 65 65 64 64 64 64 64 65 64 65 64 64 64 63 64 63 63 63 62 61 59 61
41 38 38 43 49 44 43 45 51 51 51 52 54 53 50 52 54 56 57 64 66 68 64 68 69 67 68 67 66 65 66 65 64 64 64 65 64 63 64 63 62 64 63 63 61 61 60 60 61
41 38 40 40 45 46 43 42 47 51 51 53 51 52 52 51 50 52 54 53 54 57 61 66 68 67 68 68 63 60 61 61 61 62 63 63 62 62 63 62 63 63 62 61 61 61 61 60 60
37 48 47 44 39 33 43 30 45 46 45 48 50 49 49 50 51 51 51 52 52 52 55 67 68 67 68 66 63 62 63 62 64 64 64 61 61 61 62 61 63 63 62 61 61 62 61 60 59
43 50 46 43 38 36 38 30 39 44 42 45 48 51 48 49 49 48 52 53 52 53 52 64 68 67 67 65 65 63 63 62 59 60 61 60 60 61 62 63 62 62 62 62 61 61 61 60 60
52 46 43 39 36 28 38 33 31 36 40 45 50 50 48 48 47 49 51 52 51 51 53 61 64 65 66 65 64 64 61 59 59 59 60 58 59 61 62 62 62 62 61 61 61 61 61 61 61
47 39 28 26 25 26 38 33 35 41 46 47 48 48 47 46 46 47 46 46 48 49 51 59 65 65 64 64 62 62 60 60 59 59 59 58 59 60 60 62 61 61 62 62 62 61 61 61 60
41 39 29 24 24 28 39 29 36 46 49 51 50 47 46 44 44 45 45 44 45 48 49 53 64 63 63 63 62 61 60 60 60 59 59 60 61 61 61 61 62 61 61 61 61 61 61 61 60
41 34 42 35 32 28 32 36 43 47 48 50 46 44 41 42 42 43 43 44 44 45 47 49 61 62 63 62 61 60 60 59 59 59 60 61 61 60 60 60 60 60 60 60 60 60 60 60 60
41 44 29 28 24 22 29 31 31 40 44 48 42 39 39 40 41 41 41 42 44 44 46 48 53 61 62 61 60 60 60 59 59 59 57 58 57 58 58 58 58 58 59 59 59 59 60 60 60
36 37 35 35 32 25 22 24 39 41 44 41 40 38 37 38 38 39 40 41 42 44 44 46 49 59 60 60 60 59 59 59 58 58 57 57 57 58 58 58 58 58 58 59 58 58 59 59 59
39 35 35 27 26 29 28 27 42 41 42 41 39 39 38 38 37 38 39 39 39 41 43 44 45 49 55 60 59 59 59 59 59 57 57 58 57 57 57 58 58 58 57 58 57 57 57 58 57

GFSSGP_sfc_temp_096.txt.gz
Temp
60 61 61 60 49 42 36 45 46 53 56 60 64 65 63 65 65 59 70 72 72 71 72 73 74 74 74 75 75 75 76 76 76 76 76 76 76 76 76 76 76 77 78 79 79 79 79 78 76
60 63 60 51 43 36 41 45 49 54 61 65 66 65 63 65 70 72 70 73 72 72 72 72 73 74 74 74 74 75 76 76 76 76 76 76 76 76 76 76 76 77 78 79 79 79 78 76 74
62 64 54 47 37 38 41 48 52 59 64 63 63 66 67 67 74 73 73 72 72 71 72 72 72 73 74 74 74 74 75 75 75 75 76 76 76 76 76 75 76 77 78 79 79 78 76 74 73
60 57 51 43 38 43 47 49 52 58 61 62 61 62 69 76 73 74 72 72 71 70 71 71 72 72 73 74 74 74 74 74 74 74 75 76 76 76 75 75 76 77 78 78 78 78 74 73 72
54 50 40 35 38 44 51 55 56 57 59 62 61 62 63 72 74 72 70 72 70 70 70 71 71 72 73 74 74 73 73 73 73 74 74 75 75 75 74 74 74 76 77 77 77 76 73 72 72
49 47 36 36 40 48 53 55 57 59 61 63 62 61 63 72 71 70 70 68 70 70 70 71 72 72 72 72 72 72 72 72 72 73 73 74 74 74 74 74 74 74 75 74 74 73 72 72 71
46 41 36 35 41 46 55 58 58 58 59 61 65 59 64 69 70 70 68 67 68 68 69 70 72 72 71 70 70 70 71 71 72 72 72 73 72 72 73 73 73 74 73 73 73 72 71 72 71
47 44 34 39 43 45 56 58 60 58 58 69 67 58 59 68 68 67 67 65 65 67 70 70 71 71 70 70 69 70 70 70 71 71 71 71 71 72 72 72 73 72 72 72 72 72 71 71 69
49 38 32 39 44 47 57 54 58 61 61 62 65 65 69 70 68 67 65 65 64 65 66 69 70 71 71 71 69 70 71 70 70 70 70 68 69 69 70 70 71 71 70 70 71 70 70 69 68
46 35 40 48 51 50 54 53 58 57 58 60 62 65 69 70 66 64 63 62 62 63 65 69 69 69 71 71 70 69 71 71 71 71 69 68 67 67 68 68 69 69 69 69 68 69 68 68 66
44 40 48 53 56 52 51 54 58 53 53 59 59 63 64 66 65 64 64 65 65 66 65 66 68 69 68 69 69 69 70 70 69 68 67 66 67 67 65 66 65 65 67 66 66 65 64 64 65
42 49 52 53 56 53 52 53 55 54 58 63 63 64 62 63 63 64 65 66 65 68 66 66 65 67 68 69 69 70 70 68 68 67 66 67 67 67 65 66 63 63 63 64 64 64 63 63 65
46 50 53 55 55 54 55 52 53 54 61 61 62 63 60 61 62 64 65 65 65 64 67 67 65 65 66 67 68 69 70 69 68 67 66 69 67 67 66 65 65 62 63 64 64 65 65 64 65
51 51 53 53 53 53 52 51 52 56 59 59 58 59 60 60 61 61 61 63 63 65 67 68 67 67 65 66 66 67 68 69 67 67 68 68 68 67 66 66 65 65 65 64 64 64 64 65 65
53 47 50 51 51 51 52 46 48 57 54 56 57 59 59 60 61 60 63 63 64 65 69 67 67 67 66 66 65 65 66 67 66 67 68 68 67 66 66 64 64 64 65 63 60 62 63 62 63
45 43 38 47 49 54 51 42 54 56 53 55 56 57 59 59 60 61 61 61 64 63 63 68 69 67 67 67 67 65 65 65 65 66 67 67 67 66 64 63 64 64 64 64 62 62 63 63 62
38 32 36 43 50 48 45 41 51 56 55 52 53 53 55 58 59 59 61 60 63 63 63 64 67 67 68 67 67 66 65 65 65 66 67 66 66 65 64 63 63 64 63 63 63 62 63 62 62
32 33 31 36 44 44 43 43 50 52 51 51 51 51 51 52 54 57 58 58 58 62 62 66 67 67 68 68 67 67 66 66 66 65 66 66 65 64 63 63 63 63 63 62 63 62 62 62 62
41 37 36 38 45 42 43 44 47 51 48 48 48 47 48 50 54 55 56 56 56 54 57 62 63 66 68 68 66 65 65 66 66 66 66 66 65 65 64 63 62 63 62 62 62 62 61 60 62
40 36 35 40 45 42 41 43 48 49 48 45 45 46 47 49 52 54 54 54 53 52 53 55 63 66 67 69 68 66 66 66 66 66 66 66 65 65 64 63 63 62 62 62 62 62 60 61 62
39 36 37 38 42 44 40 37 41 48 47 49 48 48 48 48 49 50 52 52 53 51 51 53 53 66 67 68 68 62 63 62 61 63 63 64 65 64 64 64 63 62 63 62 62 61 61 59 61
34 44 43 41 37 31 41 28 38 42 44 45 48 47 46 47 49 49 49 50 51 52 51 52 55 58 67 68 67 65 65 63 65 63 63 63 64 63 64 64 63 63 63 62 62 62 61 60 59
40 47 43 41 36 33 34 30 33 41 40 43 46 48 45 46 46 45 48 49 51 52 50 53 55 58 67 67 67 64 64 64 63 64 64 63 62 63 63 62 63 63 63 63 61 61 61 61 60
50 45 42 37 34 26 35 32 29 37 41 43 47 48 49 47 47 47 49 49 48 49 49 51 53 60 65 68 66 63 64 59 61 62 61 62 61 62 62 62 62 63 62 61 61 61 61 60 61
45 38 29 25 24 26 36 32 35 42 45 45 45 44 44 45 44 45 45 44 45 46 46 48 51 56 65 66 65 63 62 60 61 62 61 61 61 61 61 61 61 61 62 62 61 61 61 61 60
41 39 30 23 24 26 38 29 36 46 47 48 46 44 43 41 43 43 42 42 43 44 45 46 48 51 63 64 64 63 59 59 59 60 61 61 61 61 61 61 61 62 60 61 61 61 61 60 60
40 33 39 32 32 28 31 36 43 45 45 44 41 41 39 39 40 41 41 41 41 42 44 45 47 50 62 62 62 60 59 59 59 59 59 61 62 61 61 61 61 61 61 61 61 60 60 60 60
41 43 30 29 23 23 27 30 31 38 40 40 39 37 37 38 38 39 40 40 41 42 43 45 46 49 61 61 61 60 60 59 59 59 59 60 61 61 61 60 60 60 60 60 60 60 60 60 60
34 32 33 32 30 24 21 23 37 36 37 37 38 38 37 36 36 37 37 39 40 41 42 42 45 47 52 60 60 59 58 58 59 59 59 59 59 59 59 59 59 58 58 58 58 59 59 59 59
38 34 34 24 24 27 27 26 39 37 37 38 37 38 38 36 36 37 37 38 37 38 39 40 42 45 49 52 58 58 58 59 58 58 58 57 57 56 57 58 57 58 57 58 57 57 58 58 58

GFSSGP_sfc_temp_099.txt.gz
Temp
70 71 74 74 65 61 56 60 61 64 66 72 71 72 73 76 71 69 83 79 78 80 79 78 73 74 75 75 75 75 76 76 76 77 77 77 76 76 76 76 76 77 78 79 79 79 79 78 76
71 72 73 66 60 55 60 59 61 65 69 72 72 73 71 72 78 84 85 80 80 80 80 80 73 74 74 74 75 75 76 76 76 76 76 76 76 76 76 76 76 77 78 79 79 79 78 76 75
72 71 70 65 57 56 59 60 65 67 70 71 72 74 74 75 81 85 83 81 80 80 80 80 73 73 74 74 74 75 75 75 75 75 76 76 76 76 76 75 75 77 78 79 79 79 77 75 73
71 72 65 58 56 56 58 64 65 66 69 72 72 70 78 81 80 81 81 79 79 79 80 74 72 73 73 74 74 74 74 74 74 75 75 76 76 76 75 75 76 77 78 78 79 77 75 73 72
67 65 58 53 53 56 61 63 66 64 66 69 71 68 71 81 82 80 77 77 76 78 79 77 71 72 73 74 74 74 73 73 74 74 75 75 76 76 75 74 75 76 77 77 77 75 74 73 72
62 61 53 52 56 56 62 65 67 66 68 70 69 70 73 79 79 78 77 76 76 76 77 78 73 72 72 73 73 72 72 73 73 73 74 75 75 74 74 74 74 74 75 75 75 74 73 72 72
60 57 52 51 51 55 60 67 64 66 66 68 72 67 75 79 78 76 74 75 75 75 75 76 77 75 71 70 70 70 71 72 72 72 73 73 73 73 73 74 73 74 73 73 73 73 72 72 71
60 60 49 51 53 56 64 66 68 67 67 74 75 66 68 78 78 75 75 75 75 73 74 75 75 74 75 76 69 70 70 70 71 71 71 71 71 72 72 72 73 73 72 73 71 71 71 71 70
60 53 49 52 52 58 63 62 67 71 69 69 72 73 77 79 80 76 75 73 74 72 71 73 73 74 74 75 75 71 71 70 70 72 70 70 79 78 78 74 72 71 70 71 70 71 70 69 68
58 51 52 57 60 60 63 61 64 64 65 66 69 73 75 76 77 75 75 74 72 72 69 71 71 71 73 74 73 75 76 76 76 76 76 77 77 78 77 74 70 69 69 69 69 69 69 68 76
55 52 54 57 61 62 61 61 66 63 60 65 66 70 73 73 73 71 75 74 75 76 74 71 70 71 71 71 72 73 74 74 73 73 73 74 75 76 77 76 77 77 71 76 72 74 76 76 76
51 55 58 60 63 63 60 65 62 62 64 71 71 72 69 72 72 72 74 76 75 76 78 75 73 70 69 71 71 73 72 72 71 71 71 71 71 73 74 74 75 76 75 71 75 73 74 74 75
52 55 59 60 61 60 62 59 61 62 68 71 68 68 69 69 71 74 75 76 76 75 78 76 73 71 71 69 70 71 72 72 71 70 71 73 71 71 71 71 72 75 75 72 71 71 73 73 74
57 56 58 60 60 59 58 60 58 63 68 67 66 67 69 69 71 72 74 73 73 75 76 76 74 73 72 72 70 70 72 73 71 69 71 72 72 70 70 68 69 70 71 70 69 68 70 72 72
58 53 56 57 59 58 59 55 55 66 64 64 67 67 69 69 71 70 71 69 71 72 74 74 74 75 72 72 72 71 71 72 71 70 70 71 71 70 69 69 68 69 69 68 66 66 66 68 71
52 51 46 55 56 58 59 49 62 64 62 63 64 66 66 67 66 67 66 67 69 69 68 70 74 74 72 72 70 71 70 70 69 69 70 71 70 69 68 68 68 70 67 66 64 64 64 66 65
46 43 44 49 57 56 55 49 60 66 62 61 63 64 62 62 65 65 65 66 66 66 64 66 69 72 73 72 73 72 71 69 69 69 69 69 69 68 67 68 68 69 67 66 64 64 65 64 64
42 42 44 45 52 52 51 50 57 60 59 59 61 59 58 60 62 63 64 64 64 64 63 63 66 68 73 73 71 71 69 71 71 69 69 70 69 67 66 66 66 68 67 65 64 63 64 65 64
47 44 43 48 52 48 49 51 55 59 58 58 58 57 57 58 60 62 62 63 62 62 62 62 61 64 70 71 70 67 66 68 69 70 69 69 68 66 65 65 66 66 65 65 64 63 64 62 64
46 43 43 48 50 48 51 50 55 57 57 58 57 56 56 56 59 60 60 60 59 59 60 59 60 62 64 73 74 72 69 68 70 69 67 68 67 66 65 65 65 65 64 64 64 63 61 62 63
44 42 42 44 49 51 48 48 50 55 54 55 56 56 55 55 55 56 56 57 57 57 57 58 58 59 61 64 74 72 69 67 65 66 65 67 68 66 65 66 65 64 65 63 64 64 62 60 62
40 48 48 45 43 40 49 38 47 51 52 53 54 53 55 55 55 55 54 54 55 55 55 54 56 58 61 64 70 70 67 66 69 69 67 65 65 64 64 65 66 65 64 64 64 65 63 62 60
45 50 47 46 42 41 43 40 45 48 48 52 53 54 53 54 53 52 52 53 53 52 51 51 53 55 58 63 68 71 67 70 72 70 65 64 66 64 62 62 64 64 64 65 66 63 62 62 61
53 48 46 44 42 34 42 42 42 48 50 51 52 52 51 50 50 51 52 50 48 49 49 49 50 51 55 62 67 69 68 69 67 67 64 67 66 63 64 64 64 64 64 65 66 64 63 62 62
50 45 35 32 31 33 41 39 46 51 51 51 49 49 48 48 47 47 47 45 44 45 45 46 48 49 53 55 69 68 67 69 68 68 67 67 66 64 64 64 64 63 65 65 67 63 64 62 62
44 45 37 27 29 34 40 36 44 51 51 49 48 47 46 45 45 45 45 44 42 43 43 44 45 47 51 53 67 67 65 64 67 68 68 68 67 66 65 64 64 64 66 64 64 63 63 63 61
43 40 44 37 37 34 40 43 48 49 45 46 45 44 42 42 43 43 44 44 41 41 41 42 44 46 50 53 65 65 63 62 63 67 68 67 65 64 62 64 63 63 62 63 64 62 62 62 62
45 46 35 36 28 27 35 37 39 39 40 43 43 41 42 42 42 43 42 42 40 40 41 42 43 45 49 52 63 62 63 63 62 63 62 63 63 61 62 62 62 62 62 65 63 62 62 61 61
40 39 37 38 35 29 28 33 41 40 40 40 40 41 41 41 41 41 41 41 40 40 40 40 42 44 47 48 59 61 61 60 60 61 63 62 61 60 61 62 62 63 62 62 61 61 61 60 60
41 36 36 31 28 30 30 32 44 42 42 42 40 41 40 41 41 41 40 40 38 37 38 38 40 41 45 47 52 59 60 61 61 60 62 61 60 60 61 62 61 61 60 60 59 59 59 60 59

GFSSGP_sfc_temp_102.txt.gz
Temp
77 87 90 86 74 74 72 74 79 76 76 81 82 79 80 85 78 77 100 92 89 90 89 81 74 75 75 76 76 76 77 77 77 77 77 77 77 76 76 76 76 77 79 79 79 79 79 79 77
86 85 87 85 70 69 74 79 74 79 79 81 81 81 80 78 86 89 93 92 90 92 90 87 73 75 75 75 75 76 77 77 77 77 77 77 77 76 76 76 76 77 79 79 79 80 79 77 76
84 85 82 77 73 69 73 75 77 78 79 79 79 83 80 78 86 88 93 91 90 91 91 90 73 74 74 75 75 75 76 76 76 76 77 77 76 76 76 75 76 77 78 79 79 79 77 75 74
84 84 81 69 69 75 73 76 77 76 79 81 81 77 85 88 85 91 92 90 89 90 92 78 72 73 74 74 75 75 75 74 74 75 76 77 77 77 76 75 76 77 78 79 79 78 75 74 73
85 82 71 68 71 77 76 77 77 75 76 78 80 77 79 89 92 92 89 88 85 88 89 87 71 72 74 74 74 74 74 74 74 74 75 76 76 76 75 75 76 76 77 77 77 76 74 73 73
76 78 66 67 72 77 75 78 77 76 78 79 77 77 81 89 91 89 89 86 85 86 86 86 75 72 73 73 73 73 73 73 73 74 74 75 75 75 75 75 74 75 75 75 75 74 73 73 72
72 70 67 69 70 71 72 77 75 75 74 76 79 72 82 87 90 90 88 86 83 84 84 83 83 79 71 71 71 71 72 72 73 73 73 74 73 73 74 74 74 74 74 74 74 73 73 72 72
75 72 67 68 66 68 77 75 78 76 76 80 81 74 75 85 89 90 89 87 85 82 82 81 81 79 82 82 70 70 71 71 71 72 72 72 72 73 73 73 73 74 73 73 72 71 72 72 71
75 65 63 68 67 69 74 72 79 79 75 78 79 79 83 86 89 88 88 87 85 82 82 79 78 77 78 82 81 72 71 71 71 73 71 72 84 83 81 77 73 73 71 72 71 70 71 70 70
69 65 67 74 73 70 74 72 75 72 74 74 77 83 84 85 85 83 85 85 83 82 81 82 79 76 76 77 78 81 84 83 83 83 82 83 84 85 85 79 71 71 70 70 70 69 69 70 81
68 62 71 69 71 73 72 72 76 73 68 74 73 77 81 82 83 82 84 86 86 85 85 84 81 81 79 77 79 77 79 81 81 83 84 83 85 85 84 85 82 81 73 83 78 78 80 81 81
61 67 69 70 72 70 69 74 71 73 72 78 79 80 80 80 80 82 84 85 86 87 87 86 84 81 80 81 79 78 76 77 76 76 76 79 79 84 84 84 84 81 83 82 83 83 82 81 81
62 67 69 70 70 70 72 68 69 71 77 80 80 77 79 79 80 84 85 86 86 85 86 87 85 82 82 79 81 81 77 79 80 77 76 76 77 78 83 83 83 81 83 81 81 80 79 79 78
68 67 68 69 69 70 65 68 70 71 78 76 77 76 78 78 79 81 83 82 81 82 83 83 85 85 83 81 80 81 81 83 78 76 75 74 77 79 76 76 77 83 81 79 79 77 79 78 77
67 60 65 67 68 67 69 63 65 73 76 73 74 76 77 77 79 78 77 78 79 80 81 79 79 82 82 81 81 81 83 81 83 77 74 74 75 77 77 75 76 77 80 77 76 74 76 75 76
60 62 56 66 67 68 65 58 68 74 72 72 74 75 75 76 74 75 75 76 78 78 77 77 79 78 79 81 82 83 83 82 83 82 76 75 74 76 74 74 74 73 74 72 71 70 68 68 73
59 53 57 60 67 66 64 60 68 72 70 69 72 75 74 74 74 74 74 75 75 76 74 74 75 75 75 78 81 81 81 80 82 82 80 77 74 75 74 74 74 72 70 71 69 67 68 67 72
53 54 58 56 63 62 61 60 66 71 71 68 72 73 71 71 71 72 73 74 74 74 73 73 74 73 73 75 79 81 81 77 80 80 80 78 75 73 73 73 72 71 69 70 69 68 67 68 68
56 56 56 59 63 56 58 60 65 69 70 69 71 69 69 69 71 74 73 73 72 72 70 70 70 71 72 73 76 79 78 76 78 81 80 78 76 73 72 72 70 69 69 69 68 67 65 65 67
54 52 53 59 62 58 59 59 65 68 69 69 69 67 66 67 69 70 70 70 69 68 68 67 68 68 69 71 73 78 80 80 78 80 79 77 74 73 72 69 68 68 68 68 68 69 63 65 66
51 51 52 52 58 60 58 56 61 64 66 67 67 66 65 64 64 66 66 66 66 65 65 64 65 65 66 67 70 73 78 80 75 74 73 75 74 72 71 69 67 67 68 68 69 67 65 61 63
47 56 54 53 51 48 58 49 57 61 61 63 64 63 64 63 64 65 64 63 62 62 62 59 60 61 62 64 66 69 73 76 78 76 72 71 70 69 69 67 67 66 67 67 68 68 68 66 61
50 56 53 54 52 51 53 48 57 61 57 60 62 62 61 61 62 61 61 61 62 60 57 54 54 56 56 57 58 64 69 77 80 77 70 68 67 67 68 66 67 65 66 66 67 69 70 68 64
56 51 53 53 51 41 50 50 54 56 59 61 61 59 58 59 60 61 61 61 60 59 56 51 50 50 52 54 56 58 66 72 78 76 68 66 65 66 67 68 68 67 66 66 65 67 70 69 66
50 46 36 34 35 37 52 49 55 59 59 60 58 57 57 58 58 58 58 57 56 54 53 48 46 46 49 50 53 58 66 70 73 75 70 65 65 65 66 69 66 66 66 67 66 66 69 68 65
47 47 37 29 35 42 49 43 49 56 58 57 56 55 56 56 57 57 56 55 54 51 51 47 43 44 46 49 52 57 70 72 75 72 69 68 68 70 72 68 68 68 68 67 66 66 70 70 67
49 45 55 43 45 41 48 50 52 50 50 52 53 54 54 54 54 54 55 53 52 49 48 43 42 43 45 47 50 56 72 73 69 68 68 68 74 76 73 69 66 64 64 66 65 67 69 66 63
52 56 40 43 32 32 44 46 48 45 48 51 51 51 52 53 53 52 52 50 50 48 48 42 42 42 43 46 49 54 67 68 69 68 68 67 73 72 70 67 66 64 64 65 66 67 66 63 63
48 46 45 45 43 35 35 42 48 47 49 49 51 51 50 51 50 50 50 50 49 49 47 41 40 40 41 44 47 50 63 66 66 66 65 64 66 68 65 65 62 62 63 64 63 63 66 65 62
47 45 45 38 37 41 38 40 51 50 49 49 50 49 49 49 49 49 49 48 47 47 45 40 39 38 40 42 45 48 50 56 61 61 62 64 63 65 66 65 62 61 63 64 64 64 64 62 60

GFSSGP_sfc_temp_105.txt.gz
Temp
78 89 95 91 76 78 76 82 88 82 82 87 87 85 85 87 84 78 101 98 96 95 91 83 74 75 76 76 76 76 76 77 77 77 76 76 76 76 76 76 76 77 79 80 80 79 79 79 78
92 92 91 86 73 72 78 88 80 85 86 86 86 86 85 82 91 92 94 97 98 97 96 88 74 75 75 75 76 76 77 77 77 77 76 76 76 76 76 76 76 77 79 80 80 79 79 78 76
88 92 83 80 75 72 77 83 84 86 84 85 84 89 85 84 91 91 96 95 97 96 97 91 74 74 75 75 75 75 76 76 76 76 77 76 76 76 76 76 76 77 79 79 80 80 78 76 75
88 88 85 73 72 81 82 85 82 82 85 87 86 81 90 93 89 94 96 95 93 95 96 78 73 73 74 75 75 75 75 75 75 76 76 76 76 76 76 75 76 78 78 79 79 79 76 75 74
88 85 73 72 74 82 88 86 84 82 83 84 86 81 85 94 96 96 95 93 90 92 94 83 72 73 74 74 75 75 74 74 74 75 75 76 76 76 75 75 76 77 78 78 77 76 75 74 73
79 82 70 69 76 84 88 85 84 83 84 85 83 82 85 96 94 94 95 91 90 89 91 86 74 73 73 73 74 73 73 73 74 74 75 75 75 75 75 75 75 76 76 75 76 74 74 73 73
74 76 70 73 74 79 83 87 80 82 82 83 88 76 86 91 93 94 95 93 90 88 88 89 83 78 72 72 72 71 72 73 73 73 74 74 74 73 74 74 75 75 74 74 74 73 73 73 72
80 77 70 73 72 75 86 83 84 82 81 87 86 76 80 90 92 93 95 95 92 88 85 87 85 83 82 81 71 71 71 72 72 73 72 72 72 73 73 73 74 74 74 73 74 73 72 72 71
82 69 67 71 74 78 85 77 86 87 81 84 85 84 87 91 92 91 91 93 92 87 84 82 82 82 83 85 80 72 72 72 72 73 72 72 83 82 81 77 74 73 72 72 71 70 71 71 70
74 68 71 80 80 79 82 80 80 80 79 79 82 87 89 88 88 87 87 88 89 88 85 82 78 78 79 85 84 83 83 83 82 83 82 82 84 86 86 80 72 72 71 71 70 70 69 70 83
74 66 77 80 82 80 77 78 83 78 74 79 78 82 85 86 86 85 87 90 89 90 89 88 83 81 80 81 81 82 87 85 85 84 84 83 85 86 86 87 82 82 73 82 77 78 80 81 83
68 74 75 78 80 77 74 79 76 78 78 84 84 84 85 84 83 84 86 88 88 90 91 89 89 84 82 86 83 85 86 84 87 86 85 85 85 86 86 87 85 81 83 82 83 82 80 80 80
71 74 76 79 77 76 77 74 75 76 82 85 85 84 82 83 84 86 89 89 90 88 89 89 90 87 85 83 86 85 85 85 84 82 82 86 87 85 87 87 88 85 82 83 84 78 79 80 79
74 74 74 76 76 76 71 73 75 77 82 81 82 82 82 82 83 85 86 86 85 85 85 85 85 86 87 85 83 84 85 86 84 85 79 78 81 81 85 86 87 86 85 81 83 83 78 78 79
71 65 70 72 73 72 75 68 69 79 82 79 81 81 82 83 83 83 83 82 83 85 85 82 82 83 82 85 85 84 85 85 86 86 83 76 77 80 83 80 79 84 86 80 77 79 80 78 78
65 66 58 70 74 74 72 60 76 81 79 77 78 80 80 82 81 82 81 82 83 82 80 81 82 80 79 79 82 85 86 85 85 87 85 80 79 81 81 82 76 79 83 80 77 78 76 76 75
61 53 59 65 76 72 70 63 74 80 76 75 78 79 80 80 80 80 80 80 80 81 79 78 78 78 77 77 78 81 83 85 86 87 87 82 80 81 80 81 76 79 80 76 74 76 75 74 76
52 54 62 60 70 69 67 65 72 76 75 74 76 78 79 78 79 78 78 79 79 79 78 77 77 76 76 77 77 79 82 84 86 86 87 84 81 80 78 78 75 75 73 73 71 69 72 71 73
58 56 57 65 73 67 64 65 71 74 74 74 75 76 76 76 77 78 76 76 76 76 75 74 72 73 74 74 75 77 78 83 85 85 85 84 82 79 76 76 75 75 71 74 69 69 69 67 70
55 54 54 60 66 65 63 63 69 73 73 75 75 75 74 73 74 73 74 74 72 71 71 70 70 71 71 72 73 74 76 80 84 85 83 83 79 76 73 74 75 74 71 73 69 69 66 67 67
46 47 52 48 55 64 62 59 64 71 74 76 75 76 74 71 70 71 71 71 70 69 67 67 66 66 68 68 69 71 74 75 76 81 81 82 81 78 73 74 74 71 71 69 68 70 67 65 65
37 51 53 51 51 46 63 47 62 68 67 69 70 70 71 70 69 70 69 69 68 68 67 65 64 64 65 65 64 62 66 71 79 81 83 80 80 75 73 74 72 70 71 69 69 70 69 70 63
44 51 48 51 49 51 53 51 59 66 62 64 67 69 68 67 67 67 67 67 69 67 65 63 62 61 62 61 59 57 58 66 74 78 82 80 77 74 74 73 71 68 69 68 68 69 70 72 67
47 45 48 51 50 38 45 49 54 58 63 65 66 66 64 64 66 67 68 67 66 65 63 60 59 58 58 54 53 52 53 57 66 75 79 80 76 71 70 69 69 69 70 67 66 68 71 72 71
44 37 30 29 32 35 53 49 51 60 67 66 62 63 62 64 64 64 63 63 62 60 59 56 54 53 52 49 49 50 52 54 60 67 74 78 72 67 66 67 66 69 68 66 66 66 68 70 70
43 39 33 26 28 35 48 41 46 60 64 62 63 62 62 62 62 62 61 60 59 58 56 51 50 49 49 46 46 49 51 54 60 67 73 75 74 71 67 66 66 67 69 70 68 69 69 69 68
42 40 50 40 44 40 41 46 51 55 55 58 58 59 59 60 60 59 60 58 57 55 52 49 49 49 46 44 44 46 49 53 63 70 74 74 74 73 67 66 66 66 67 67 67 66 67 68 69
52 54 39 40 30 32 43 43 43 46 51 56 55 56 57 59 58 58 58 57 56 54 52 49 49 46 44 43 43 46 48 52 64 72 73 74 74 73 72 68 66 66 67 69 68 64 67 67 69
49 43 44 43 40 34 34 37 48 49 53 53 54 55 55 56 55 56 56 57 55 54 52 48 46 44 42 41 42 44 46 49 54 68 72 73 74 73 72 70 67 66 67 64 64 67 64 65 67
51 49 46 34 35 37 39 39 52 54 55 55 54 54 55 55 54 55 55 55 53 51 50 48 44 43 42 40 41 42 44 46 48 51 60 70 71 70 72 68 69 69 66 66 60 59 62 64 66

GFSSGP_sfc_temp_108.txt.gz
Temp
73 83 87 86 70 72 68 76 88 83 82 88 88 85 82 85 82 72 93 93 94 89 84 79 75 76 76 76 76 76 77 77 77 76 76 76 76 76 76 76 76 77 79 79 79 79 79 79 77
84 87 88 80 66 63 70 84 81 81 84 87 87 85 84 82 91 91 90 93 95 94 86 84 74 75 75 75 76 76 77 77 77 76 76 76 76 76 76 76 76 77 79 79 79 79 79 78 76
79 88 78 74 69 64 70 83 83 84 86 86 83 89 86 84 89 90 92 92 94 95 90 87 74 74 75 75 75 75 76 76 76 76 76 76 76 76 76 75 76 77 79 79 80 79 78 76 75
84 84 80 68 66 75 78 84 85 84 85 87 86 81 90 93 90 93 94 93 91 92 95 74 73 74 74 75 75 75 75 75 75 75 76 76 76 76 76 75 76 77 79 79 79 78 77 74 74
86 80 68 67 69 76 82 87 86 81 84 85 86 80 84 91 95 95 92 91 87 88 81 79 72 73 74 75 75 75 74 74 74 75 75 76 76 76 75 75 75 76 77 78 77 77 75 74 74
75 79 65 63 70 79 85 89 85 82 84 84 83 82 84 95 93 91 91 89 87 86 84 77 74 73 73 74 74 73 73 74 74 74 75 75 75 75 75 74 75 75 76 76 76 74 74 74 73
70 70 65 68 70 74 80 90 83 81 81 82 88 79 86 91 90 91 90 90 88 86 85 79 78 76 72 72 72 72 72 73 73 74 74 74 74 73 74 74 74 75 75 74 75 73 73 73 73
76 72 65 68 68 70 83 86 86 81 80 89 87 75 76 88 90 89 89 90 90 84 84 82 78 77 76 75 72 71 72 72 72 73 72 72 72 73 73 73 74 74 74 74 74 72 72 72 71
82 65 61 66 70 75 85 82 85 88 83 84 86 84 87 90 91 87 85 86 87 84 81 80 78 77 78 78 75 72 73 72 72 72 72 70 75 75 75 74 73 73 72 72 72 72 71 71 70
72 64 65 75 78 77 81 80 83 80 79 78 81 86 89 89 87 83 83 82 84 85 81 79 76 75 77 82 77 76 77 75 75 76 74 75 76 77 79 75 72 72 71 71 71 70 70 69 72
72 64 71 74 78 79 77 77 82 77 74 80 78 82 85 86 83 81 83 84 84 86 84 81 77 75 74 75 75 78 78 77 76 77 76 75 78 77 77 77 75 73 71 74 71 70 72 73 73
66 72 74 74 77 76 74 78 75 76 77 84 84 85 84 82 80 80 81 82 84 85 86 81 78 77 75 75 77 77 78 79 78 77 77 77 76 77 77 78 76 75 75 74 75 74 73 74 74
68 71 75 77 77 77 77 73 73 75 81 85 85 84 82 82 82 84 84 85 85 83 81 79 78 75 76 75 75 76 77 75 79 77 78 79 77 76 78 78 78 76 77 75 75 75 75 74 74
69 69 70 73 74 75 72 73 74 76 81 81 81 81 82 81 82 83 83 82 81 81 81 79 78 76 77 77 75 74 75 76 77 78 77 77 77 77 78 77 77 77 77 76 77 76 72 72 72
70 63 67 69 71 70 74 67 68 77 79 78 79 80 81 82 83 81 82 79 81 81 81 77 77 75 74 73 75 75 76 75 75 78 77 76 76 74 75 75 76 78 77 75 75 73 71 71 72
61 61 54 66 70 73 71 58 71 79 78 76 78 79 80 81 82 83 80 80 81 79 76 77 78 74 74 72 72 74 74 77 78 78 79 76 75 75 74 75 74 73 74 74 74 73 70 69 69
58 50 53 59 71 71 70 63 73 78 77 76 77 78 79 79 81 79 79 79 78 78 74 74 73 72 71 71 72 72 72 73 77 78 78 75 75 74 74 75 75 74 73 71 73 71 71 68 67
49 52 57 56 65 69 66 66 72 76 76 73 75 76 77 78 78 76 78 76 76 75 73 72 71 69 69 70 70 71 71 71 74 78 79 78 75 74 74 75 74 74 73 73 71 70 70 68 68
57 55 53 59 65 62 60 60 68 73 74 72 72 74 76 77 76 76 74 73 72 70 69 68 67 66 66 67 66 67 68 70 71 77 78 77 75 75 75 74 74 72 72 72 70 67 68 65 66
55 51 49 55 61 60 56 52 55 71 72 74 73 74 74 76 74 73 72 71 69 68 66 65 65 64 64 65 65 65 64 66 68 70 71 76 76 74 74 73 72 72 71 70 69 67 65 66 67
52 50 48 47 54 56 53 47 52 65 72 74 76 77 76 72 70 70 70 68 67 65 64 64 63 62 62 63 63 64 64 65 66 67 69 72 76 75 73 73 71 69 68 66 68 67 65 64 65
44 55 52 48 43 35 51 33 48 59 64 69 73 73 70 69 70 69 67 66 66 63 63 62 61 61 62 60 58 56 56 56 59 63 68 72 75 75 73 72 71 69 68 66 66 67 66 66 62
48 48 46 43 39 40 41 37 46 58 56 62 66 67 66 65 66 65 65 65 65 63 60 59 58 58 57 57 55 52 51 54 57 60 62 66 70 74 73 71 70 68 67 67 68 66 67 65 64
49 42 43 43 39 28 40 39 39 49 58 64 65 63 63 64 64 65 64 63 61 60 58 56 54 53 54 54 51 49 47 49 51 53 56 61 67 70 72 70 70 70 67 66 67 65 66 65 65
46 35 29 27 28 30 47 40 41 54 55 64 56 59 62 62 61 61 59 58 57 56 55 53 52 51 53 51 48 47 47 47 48 50 53 56 60 65 68 69 67 67 67 66 67 66 65 65 64
44 37 32 23 27 34 45 32 39 51 57 56 54 56 60 59 59 58 58 56 56 55 53 51 50 48 49 48 46 46 46 47 49 50 53 55 59 65 67 67 67 66 66 67 66 66 63 62 61
40 33 44 35 35 30 36 43 48 51 52 52 51 54 56 57 56 56 57 56 55 53 52 49 47 46 46 45 44 43 45 46 47 49 52 56 60 65 68 67 66 66 66 66 63 61 62 63 63
48 51 32 32 25 25 38 39 36 45 47 52 51 52 54 55 55 55 55 54 53 52 51 49 46 44 44 44 43 43 43 46 47 49 51 58 63 68 68 66 66 65 66 65 64 65 66 65 65
48 44 39 36 39 29 30 31 40 39 43 48 52 53 53 53 53 53 54 54 51 51 49 47 45 42 40 41 42 42 42 43 45 46 48 49 53 68 68 67 66 65 64 64 64 65 65 63 62
53 47 41 32 30 34 33 33 44 42 47 54 54 54 54 52 51 51 52 51 49 47 47 45 43 41 39 39 41 40 40 41 43 43 45 48 48 54 67 67 66 65 64 64 63 62 62 62 59

GFSSGP_sfc_temp_111.txt.gz
Temp
65 70 68 67 55 52 49 58 65 66 67 72 77 76 72 72 72 60 80 84 81 78 77 76 74 75 76 76 76 75 76 76 76 76 76 76 76 76 76 76 76 77 78 79 79 79 79 78 77
67 75 69 62 50 44 51 65 63 67 74 78 80 77 75 73 82 78 77 85 84 81 77 76 74 75 75 75 75 75 76 76 76 76 76 76 76 76 76 75 75 77 78 79 79 79 79 77 75
70 75 60 54 48 46 52 65 67 73 78 77 74 79 78 74 82 79 81 83 86 82 80 78 73 74 75 75 75 75 75 75 75 75 76 76 76 76 76 75 75 77 78 79 79 79 78 76 74
69 66 63 51 49 58 62 71 72 75 75 78 74 73 79 82 82 82 83 84 82 81 82 73 72 73 74 75 75 75 74 74 74 75 75 76 76 76 75 75 75 77 78 79 79 77 76 74 73
66 61 50 47 53 61 71 76 73 73 75 76 76 72 73 80 83 83 81 83 81 78 76 74 72 72 74 74 75 74 74 73 73 74 74 75 76 75 75 74 75 76 77 77 77 76 75 73 73
59 59 46 44 54 66 71 74 76 76 75 75 73 72 73 81 81 80 81 78 80 77 75 73 73 73 73 73 73 73 73 73 73 73 74 75 74 74 74 74 74 75 75 75 75 74 73 73 73
54 50 46 51 57 63 71 78 72 73 73 72 78 69 73 77 78 82 80 78 78 76 74 72 72 73 72 72 72 71 72 72 73 73 73 73 73 73 73 74 74 74 74 74 74 73 72 73 72
60 54 49 53 55 57 72 77 74 74 68 81 79 68 65 74 79 80 78 77 76 76 73 72 71 71 70 70 71 71 71 72 72 72 72 72 72 72 73 72 73 73 73 73 73 72 72 72 71
62 47 50 52 56 63 74 70 75 75 73 75 76 74 79 80 80 77 73 76 72 75 74 73 72 72 71 70 72 71 72 71 71 72 71 70 72 72 72 72 72 73 72 72 72 71 70 70 70
55 46 52 62 66 65 69 69 71 70 71 72 72 78 81 81 77 75 71 71 71 70 72 72 72 72 73 76 70 69 72 70 70 71 71 72 71 72 74 72 71 71 71 71 71 70 69 69 68
58 55 63 66 70 70 68 68 73 67 66 69 69 73 76 75 72 72 72 71 73 73 74 72 72 72 73 74 70 70 71 70 70 70 70 71 72 72 72 72 72 70 71 70 70 69 68 68 68
57 64 67 68 71 69 68 72 69 68 68 74 74 75 73 73 73 72 72 73 73 71 72 72 72 71 70 72 72 72 71 71 70 71 70 70 70 70 72 72 71 70 71 70 69 69 68 69 70
59 63 67 68 68 67 70 67 68 69 72 75 77 78 74 73 73 72 73 73 69 69 70 70 71 71 72 71 70 72 71 71 72 72 73 74 72 72 71 73 72 72 71 70 70 70 70 70 70
62 63 64 66 66 67 65 66 67 69 72 72 74 74 73 73 73 71 70 68 69 70 68 68 68 68 70 68 68 68 68 69 70 70 72 75 74 73 72 71 72 72 73 72 72 71 70 70 70
62 54 58 60 61 61 66 60 62 70 72 70 72 75 72 72 72 72 68 69 69 68 69 68 68 67 66 70 66 64 66 70 68 69 71 73 73 71 74 72 71 73 74 72 72 69 69 69 69
53 53 45 56 61 64 61 51 64 69 68 68 71 72 72 71 73 68 68 67 66 67 66 67 70 65 64 64 64 66 65 64 66 70 69 71 73 70 69 68 68 70 73 72 71 71 67 68 67
47 40 44 50 61 61 59 54 65 66 69 69 70 70 68 68 66 67 68 66 65 65 65 64 63 63 63 63 63 63 64 64 64 65 68 69 72 73 71 69 68 69 67 70 71 68 70 67 66
38 41 45 46 54 56 52 54 62 66 65 65 67 63 65 65 65 67 66 66 64 63 63 63 62 61 61 61 61 61 61 63 64 65 68 70 69 71 70 71 71 68 68 66 66 69 67 69 67
49 47 46 51 57 53 51 52 51 57 59 60 64 64 63 66 65 65 64 63 62 61 60 59 58 57 58 57 56 58 57 60 61 64 66 66 68 70 71 71 70 71 70 71 68 67 67 63 65
50 46 45 50 56 52 49 46 52 56 57 60 63 64 65 64 64 63 62 60 58 57 57 57 56 55 56 56 56 55 56 57 60 62 64 65 66 65 70 70 70 70 68 68 67 67 63 63 65
49 45 45 45 50 51 46 43 48 56 60 63 66 70 70 63 62 60 60 57 56 54 53 54 54 54 54 54 54 54 54 54 55 57 58 60 63 64 66 70 70 69 68 68 65 64 64 61 62
43 51 45 43 39 32 43 30 43 49 52 59 62 64 61 60 61 59 58 55 54 52 53 52 52 52 54 52 50 47 46 46 50 51 55 56 59 60 63 67 70 69 67 65 64 60 61 59 61
43 46 42 41 36 37 37 32 40 49 49 55 57 60 58 57 57 55 54 54 54 52 49 50 51 51 51 50 48 46 44 46 49 50 50 52 55 58 61 63 67 69 66 65 61 60 62 65 63
48 42 41 39 37 27 37 36 35 42 48 49 55 57 57 55 55 55 56 55 51 49 47 47 48 49 49 48 47 45 44 45 45 46 47 50 52 53 57 61 64 68 68 65 64 63 64 63 64
40 35 26 22 26 24 44 37 37 47 52 52 51 50 54 55 52 52 52 51 50 47 46 49 46 44 46 46 46 45 43 45 44 46 47 48 50 51 54 58 61 64 67 67 65 64 64 64 63
37 35 26 20 22 28 39 30 37 48 48 47 48 48 50 52 53 51 50 48 47 48 46 44 43 41 42 44 44 44 44 44 45 46 48 48 49 53 55 56 61 61 63 65 65 64 63 61 63
39 32 41 31 32 25 31 39 46 42 44 45 46 47 47 50 50 50 49 47 47 46 45 43 43 40 40 41 41 42 43 43 43 44 46 48 51 53 56 55 59 59 60 62 65 66 61 60 58
43 45 30 31 23 22 33 35 29 34 35 40 41 46 47 47 49 49 47 46 46 45 44 42 41 42 40 40 40 41 41 42 42 43 45 46 48 50 52 58 59 61 60 63 65 64 62 61 61
41 38 38 36 33 25 26 30 34 32 37 38 41 45 46 46 46 46 45 44 44 43 42 42 40 40 38 38 39 39 39 40 41 41 43 43 45 48 50 53 62 64 65 65 63 62 61 61 60
49 42 41 28 28 30 30 30 40 41 41 43 46 45 45 44 43 43 42 42 41 40 41 41 40 39 39 39 38 38 39 39 39 39 41 42 43 45 47 51 57 64 65 66 62 61 62 62 61

GFSSGP_sfc_temp_114.txt.gz
Temp
62 66 65 65 54 48 44 53 61 63 63 70 74 72 68 66 69 59 78 79 77 75 75 75 74 75 75 75 75 75 76 76 76 76 76 76 76 76 76 76 76 77 78 79 79 79 79 78 76
64 72 66 57 48 40 45 58 60 65 71 73 75 73 71 69 76 75 74 79 79 77 75 75 74 74 75 75 75 75 76 76 76 76 76 76 76 76 76 75 75 77 78 78 79 79 78 77 75
69 71 59 51 43 42 46 60 65 71 76 73 71 75 75 71 77 76 78 79 79 77 76 76 73 73 74 74 75 75 75 75 75 75 76 76 76 76 76 75 75 77 77 78 79 79 77 75 73
66 62 58 49 46 52 56 63 67 70 74 74 70 71 75 79 78 79 79 80 77 77 78 73 72 73 74 74 74 74 74 73 74 74 75 76 76 76 75 75 75 77 77 78 78 77 76 73 73
63 56 47 42 48 55 62 66 68 71 71 72 71 69 70 76 79 78 78 80 76 75 76 73 71 72 74 74 74 74 73 73 73 74 74 75 75 75 75 74 75 76 77 77 77 76 74 73 73
57 54 43 41 48 58 62 67 69 71 73 71 69 69 66 75 76 76 76 76 75 73 73 73 72 72 73 73 73 72 72 73 73 73 73 74 74 74 74 74 74 74 75 75 75 74 73 73 72
52 48 42 43 49 55 64 70 69 69 71 71 75 66 67 72 73 77 75 75 74 73 71 71 71 73 71 71 71 71 71 72 72 72 72 73 73 72 73 73 74 74 73 73 73 73 72 72 72
56 50 43 45 49 52 63 68 70 68 69 80 75 66 62 72 77 77 77 73 73 71 70 70 70 71 70 70 70 70 70 71 71 71 71 71 71 72 72 72 73 73 73 72 73 72 71 71 71
58 46 40 46 50 56 68 65 66 72 69 71 75 72 75 78 76 73 71 70 70 71 70 69 69 70 69 70 71 71 71 71 70 71 71 70 72 72 72 71 71 72 71 71 71 71 70 70 70
52 43 48 57 58 60 65 66 66 65 67 68 69 75 75 75 73 72 71 72 69 70 70 70 70 69 69 73 70 69 71 71 71 72 72 73 72 71 72 71 70 71 70 70 70 70 69 69 68
52 50 57 62 65 65 65 66 70 64 61 67 66 70 74 73 70 68 70 71 71 70 70 70 70 70 69 70 69 68 69 68 69 70 72 72 72 71 71 70 70 70 70 70 70 69 69 68 68
51 59 61 62 64 62 61 63 63 63 64 71 71 71 72 73 71 70 71 73 68 69 70 70 70 69 70 69 69 68 68 68 68 69 69 70 70 70 71 70 70 69 70 69 69 69 69 68 68
54 57 60 62 63 62 65 62 63 63 68 70 71 73 71 70 71 70 71 69 66 65 66 67 69 68 69 71 70 70 70 69 69 68 70 70 69 69 70 71 70 70 70 70 69 68 68 68 68
57 57 56 58 58 60 61 61 60 64 68 70 71 71 71 70 70 68 68 65 65 66 65 64 64 65 68 64 64 66 68 68 68 68 69 70 70 71 71 71 70 70 70 69 69 68 68 68 68
58 51 55 55 55 56 62 55 56 66 66 67 70 72 71 70 69 68 66 64 66 65 64 64 63 62 62 62 63 62 62 64 67 69 68 69 70 70 72 71 71 71 71 70 69 68 68 67 68
50 48 39 51 54 58 52 47 57 64 62 61 63 66 70 68 69 64 64 63 62 62 61 61 63 60 59 59 60 63 61 60 62 63 65 68 71 71 69 69 70 70 71 70 69 68 67 67 66
42 34 40 45 57 54 50 49 56 64 62 61 60 62 65 69 61 61 61 60 60 60 59 58 58 57 57 58 58 58 58 59 59 60 61 64 67 69 69 68 68 67 68 68 69 68 68 66 66
34 36 37 37 47 49 48 50 58 58 56 58 59 61 63 63 60 61 59 59 59 58 58 57 57 56 57 56 56 56 56 57 59 59 61 62 61 65 67 69 69 67 66 66 67 68 68 67 67
44 42 40 46 51 49 48 49 52 56 55 56 58 60 62 58 60 59 58 58 57 56 55 55 53 53 53 53 52 53 52 53 55 57 60 60 60 61 62 67 67 67 67 68 66 66 64 64 65
45 41 41 48 52 49 45 45 51 54 55 57 57 60 59 59 59 56 54 53 52 52 52 52 51 51 51 51 50 49 50 50 53 55 55 57 57 57 59 59 64 68 67 66 64 66 65 65 64
44 42 43 43 44 45 43 39 46 53 55 58 59 60 62 57 55 53 52 50 49 48 49 49 49 49 50 50 49 48 48 49 49 50 50 53 54 55 55 57 59 60 66 67 66 64 65 65 62
39 45 44 41 37 31 41 29 42 47 49 52 55 53 53 53 53 52 49 47 47 46 48 48 50 49 50 48 46 44 42 42 45 46 49 50 52 53 54 55 57 59 61 65 66 64 63 60 57
41 44 42 39 33 31 36 28 39 48 45 49 49 48 47 49 49 49 48 47 46 46 45 47 46 46 47 46 45 43 42 43 44 47 48 49 50 52 52 53 54 56 58 62 66 62 58 59 57
45 41 39 37 33 22 34 32 30 38 44 47 49 48 48 48 49 49 49 48 46 45 45 45 44 42 44 45 43 45 43 43 43 44 46 48 50 51 53 54 53 55 58 61 64 63 62 59 59
39 34 27 21 25 23 38 33 34 41 43 47 43 43 45 47 46 46 45 44 44 44 43 45 42 41 40 41 41 43 44 43 43 43 44 45 46 47 50 52 53 54 55 59 63 61 60 60 60
36 35 26 19 21 24 37 25 33 39 39 41 44 44 43 44 45 44 44 44 43 43 42 40 41 40 40 40 40 42 43 42 42 42 43 44 46 48 49 50 53 53 55 57 61 63 61 60 61
37 29 39 31 30 21 29 34 40 37 35 36 36 38 38 40 42 42 43 42 42 42 40 39 39 40 39 38 39 40 41 41 40 41 43 44 45 47 47 48 49 52 55 56 59 61 60 61 62
42 43 30 29 21 21 28 29 28 33 33 35 34 33 34 38 39 40 41 41 41 41 41 40 40 38 39 39 39 39 39 40 41 41 40 41 43 44 44 46 48 51 55 56 57 59 62 62 61
38 37 36 34 29 23 22 26 35 33 37 35 35 35 39 39 40 39 39 40 40 40 40 39 37 37 37 38 38 38 38 39 39 39 39 39 40 42 43 44 46 50 52 58 57 59 61 61 61
46 41 39 26 25 28 26 29 39 40 42 41 40 39 39 38 38 38 38 38 38 38 39 38 35 35 36 38 37 37 38 38 37 37 37 38 38 40 41 43 44 46 47 51 60 59 62 60 60

GFSSGP_sfc_temp_117.txt.gz
Temp
61 64 63 63 54 47 42 51 55 61 64 68 71 67 66 64 66 58 74 77 76 74 74 74 73 74 75 75 74 75 76 76 76 76 76 76 76 76 76 76 76 77 78 79 79 78 78 77 76
64 69 64 55 47 40 46 52 55 62 68 71 73 69 67 65 72 72 73 77 76 74 73 74 73 74 74 74 74 74 76 76 76 76 76 76 76 76 76 75 75 76 78 78 78 78 78 76 74
67 68 58 50 41 42 46 54 60 68 71 68 71 71 71 68 73 74 77 77 76 74 74 74 73 73 74 74 74 74 74 75 75 75 76 76 76 76 76 75 75 76 77 78 79 79 76 74 73
65 62 57 49 45 50 52 58 63 65 70 70 68 67 71 75 75 77 77 77 74 73 74 72 72 73 74 74 74 74 74 73 74 74 75 76 76 76 75 74 75 77 77 78 78 77 75 73 72
60 55 48 44 45 52 56 63 65 65 66 70 68 66 66 73 75 76 75 76 74 73 73 72 71 72 73 74 74 74 73 73 73 74 74 75 75 75 75 74 75 76 76 77 76 75 74 73 72
55 52 43 40 46 54 58 63 64 65 66 68 69 66 64 74 73 73 74 73 73 72 72 72 72 72 72 73 73 72 72 72 73 73 73 74 74 74 74 74 74 74 74 74 74 73 73 72 72
52 47 41 40 48 52 60 67 63 64 65 65 70 63 65 70 73 73 73 71 71 71 70 70 71 72 71 71 71 71 71 72 72 72 72 73 72 72 73 73 74 74 73 73 73 73 72 72 71
53 49 39 44 47 49 59 64 65 65 65 73 72 62 61 71 75 71 70 70 71 70 69 69 69 70 70 70 70 70 70 71 71 71 71 71 71 72 72 72 73 73 73 72 73 72 72 71 71
55 44 38 44 47 54 63 60 62 68 66 67 69 67 72 73 73 68 66 67 67 70 68 68 68 69 69 69 70 70 71 70 70 71 70 69 71 71 71 71 71 72 71 71 71 71 70 70 70
51 41 45 54 54 56 62 60 62 62 63 64 66 71 72 74 72 69 67 66 67 68 68 68 68 68 68 71 69 69 70 70 71 71 70 71 73 71 71 70 70 70 70 70 70 70 69 69 67
47 46 52 58 61 59 58 61 63 59 58 64 63 67 70 68 68 67 67 67 67 69 68 69 69 68 68 68 67 67 68 69 71 72 73 72 73 72 71 71 70 69 69 69 69 69 69 68 67
47 54 56 56 60 58 57 60 58 60 62 67 67 68 67 67 67 66 66 68 67 67 68 68 69 69 68 69 67 67 67 67 68 70 71 71 70 70 71 72 72 70 68 69 69 69 69 68 68
51 54 57 57 58 57 60 56 58 58 65 65 67 68 66 66 67 68 68 63 63 61 65 66 66 65 67 69 69 69 68 67 67 67 69 71 70 70 72 72 72 70 69 68 68 69 69 68 67
53 52 53 54 55 56 56 56 54 60 65 64 65 64 65 65 66 67 65 62 60 62 62 62 63 63 65 62 62 63 64 67 68 67 67 68 68 69 69 71 71 71 68 69 68 69 69 69 68
55 49 51 53 52 53 56 49 51 60 60 60 61 63 63 64 65 64 67 60 60 61 61 60 59 60 60 60 60 58 59 62 63 63 66 67 68 68 68 68 69 69 69 68 68 67 67 67 68
47 45 37 49 51 55 49 43 55 57 61 60 58 60 62 64 64 65 59 58 57 58 56 57 60 56 56 56 56 58 57 57 57 60 62 64 65 67 68 68 68 70 68 68 68 67 67 68 67
39 31 36 43 53 50 48 46 52 61 60 58 55 57 57 61 60 55 56 55 55 54 55 54 54 53 53 54 54 54 54 55 55 56 57 60 62 63 62 65 68 68 68 67 68 67 67 67 67
33 33 30 35 46 48 46 47 55 55 54 54 55 56 55 54 52 55 55 54 53 52 53 53 52 51 51 51 51 52 52 52 53 54 56 57 57 59 58 60 63 66 65 66 67 67 67 67 66
41 38 36 40 47 45 45 47 50 52 51 52 55 55 53 51 53 53 53 51 50 50 50 50 49 49 50 48 46 46 46 48 50 52 53 54 54 55 55 56 57 60 65 65 64 65 66 66 65
42 38 38 43 48 45 42 44 50 50 50 53 54 51 51 51 50 51 49 47 47 46 47 48 47 47 47 47 46 45 44 46 48 49 50 51 51 51 53 52 54 56 57 61 65 65 63 63 64
41 38 39 39 41 43 40 38 44 52 52 54 55 55 54 51 48 48 47 46 45 45 46 46 46 46 46 46 46 44 45 45 45 45 47 49 50 51 51 51 52 53 54 55 59 64 64 63 61
35 45 43 40 36 28 39 27 42 44 46 48 48 46 47 47 47 46 44 45 45 44 45 44 44 44 46 46 43 40 39 40 42 43 46 48 50 50 51 51 51 51 53 54 56 61 64 64 59
40 44 41 38 32 29 32 27 32 41 39 41 44 44 43 44 44 44 43 44 45 44 43 42 42 42 42 42 42 42 42 44 45 46 45 46 49 51 52 52 53 52 52 53 54 56 62 64 63
45 41 38 34 31 21 32 31 27 34 35 40 45 45 44 44 44 44 45 44 42 43 43 42 41 41 42 41 41 41 42 42 42 43 43 45 46 48 50 51 51 52 52 53 54 56 59 63 61
38 38 29 23 22 22 35 30 31 35 36 38 38 38 39 39 39 39 41 41 40 40 40 42 40 38 39 39 39 42 42 42 41 41 41 42 43 45 47 48 48 49 51 53 54 54 56 62 61
35 36 28 20 20 23 34 24 31 37 39 39 38 37 37 35 36 37 37 39 41 40 39 39 39 38 38 38 39 40 41 41 41 41 41 42 42 43 45 46 46 47 49 51 52 54 55 59 61
35 30 37 30 29 22 27 31 36 37 36 36 36 36 35 34 34 34 34 36 39 39 39 38 38 37 38 38 39 39 40 39 39 40 41 41 42 43 44 44 45 46 47 49 52 54 55 58 61
40 42 29 29 21 20 26 28 24 31 33 35 34 34 34 35 35 35 34 35 37 39 39 38 37 36 37 38 38 38 39 39 39 39 38 38 39 40 41 42 43 44 46 49 50 52 56 56 60
37 33 34 33 27 22 21 23 31 34 36 35 35 35 34 33 34 34 34 36 37 38 37 35 35 36 36 38 38 37 38 38 38 37 37 37 37 38 38 40 41 42 42 45 45 46 56 55 58
44 40 35 23 23 29 21 22 41 39 40 38 39 36 35 35 34 34 34 36 37 37 35 34 34 34 36 37 37 37 37 37 37 36 36 36 36 37 37 38 39 39 40 41 42 42 45 56 57

GFSSGP_sfc_temp_120.txt.gz
Temp
60 62 62 63 55 48 42 48 52 57 60 64 67 65 64 63 65 58 74 76 74 72 73 73 73 74 75 75 75 75 76 76 76 76 76 76 76 76 76 76 76 77 78 79 79 79 78 77 76
62 66 63 55 49 44 46 50 55 58 66 68 68 65 64 64 70 70 71 76 75 73 72 72 73 74 74 74 74 75 76 76 76 76 76 76 76 76 76 75 75 77 78 79 79 79 78 76 74
64 66 58 49 42 45 45 51 58 63 67 65 64 68 69 67 71 72 74 75 74 72 72 73 73 73 74 74 74 74 75 75 75 75 76 76 76 76 76 75 75 77 78 78 79 79 77 74 73
64 61 55 48 44 47 47 56 58 63 65 68 67 64 68 72 72 74 75 75 72 71 72 71 72 73 74 74 74 74 74 73 74 74 75 76 76 76 75 74 75 77 77 78 78 77 75 73 72
58 54 46 42 42 48 55 59 61 61 62 64 64 63 66 71 73 73 73 75 72 71 71 71 71 72 74 74 74 74 73 73 73 74 74 75 76 76 75 74 75 76 76 77 77 75 74 72 72
54 51 43 40 43 51 56 59 60 62 62 64 63 62 63 71 73 72 72 71 72 71 71 71 72 72 73 73 73 72 72 73 73 73 74 74 74 74 74 74 74 74 74 74 74 73 73 72 72
51 47 41 39 46 48 58 63 60 60 61 63 67 60 64 71 72 72 71 69 70 71 70 69 70 72 71 71 71 71 71 72 72 72 72 73 73 73 73 74 74 74 73 73 73 73 72 72 71
51 48 39 41 45 47 56 60 63 62 59 70 69 61 62 70 71 69 69 67 68 69 69 68 68 69 69 69 69 70 70 70 71 71 71 71 71 72 72 72 73 73 73 72 73 72 71 71 71
53 44 39 44 46 51 59 57 59 64 61 63 65 65 71 73 72 68 66 67 67 69 68 67 67 68 68 69 70 70 71 70 70 70 70 68 70 70 71 71 71 72 71 71 71 71 70 70 70
49 40 44 51 52 51 55 56 58 59 60 60 61 67 71 71 69 67 66 65 65 67 68 67 67 67 68 70 69 69 69 69 70 72 71 71 72 71 70 70 70 70 70 70 70 70 69 69 68
44 44 49 53 56 52 51 55 58 54 55 60 61 65 67 66 65 65 65 65 66 67 68 68 67 67 67 68 67 67 68 70 71 72 72 72 72 72 71 71 69 68 69 69 69 69 69 68 67
44 51 52 52 56 53 53 55 54 59 61 64 64 64 63 64 63 63 64 65 64 64 65 67 67 67 67 68 67 67 68 69 69 70 71 70 69 69 70 71 72 71 70 69 68 69 69 68 68
48 51 54 55 55 54 56 53 55 55 60 61 63 64 62 62 63 64 64 64 62 63 64 69 69 69 68 69 69 67 66 67 68 68 70 70 69 68 69 70 70 71 71 70 70 70 70 70 69
50 50 50 52 54 53 51 52 50 55 57 57 58 59 61 61 62 61 63 63 61 61 60 60 62 64 66 62 62 62 64 65 67 67 67 69 69 68 68 69 70 69 69 70 70 70 70 70 70
51 46 48 50 49 51 51 47 47 54 57 58 58 58 59 60 60 59 60 59 56 57 57 57 57 58 58 58 58 57 59 60 61 62 63 65 65 64 66 68 69 70 70 67 69 68 68 69 69
45 43 37 47 50 51 50 41 52 54 58 57 58 57 59 59 56 52 52 52 52 53 53 54 56 54 54 55 55 56 56 56 56 57 59 60 62 62 63 62 65 68 69 68 68 68 67 67 67
38 31 35 42 50 48 46 42 51 58 58 54 57 53 53 54 51 50 51 50 50 50 51 51 51 51 51 52 52 53 53 53 53 53 54 56 57 58 57 60 62 64 66 67 67 67 67 66 66
31 31 29 34 44 46 44 44 50 53 51 53 54 51 51 47 47 49 49 49 49 48 49 49 49 49 49 49 50 49 49 50 50 51 52 53 53 54 53 55 56 57 61 65 65 65 65 65 66
40 36 33 37 45 42 42 44 46 50 49 48 50 49 48 46 47 47 47 46 46 47 47 47 46 46 47 46 45 46 45 47 47 49 49 50 50 51 50 51 52 54 55 57 62 64 62 62 66
40 35 35 40 45 44 41 40 46 47 47 46 44 46 46 45 45 46 45 44 43 43 44 44 44 45 45 45 45 44 44 46 46 46 47 48 49 49 50 48 49 51 52 53 55 61 63 63 65
38 36 36 37 40 40 38 35 39 45 46 47 44 44 45 42 42 44 45 43 43 42 43 43 43 43 45 45 45 45 43 44 44 44 45 47 49 49 49 49 49 50 51 51 53 55 58 62 62
32 42 41 38 34 27 38 26 35 38 40 45 42 42 42 43 44 44 42 42 41 43 44 43 44 43 44 43 43 42 40 41 44 44 44 46 48 48 49 51 52 52 52 52 52 54 55 58 61
38 43 40 38 31 29 30 26 29 36 36 40 40 40 39 39 40 39 40 41 41 41 41 42 43 41 42 41 42 41 40 42 44 44 44 44 45 48 49 50 50 50 51 52 53 53 54 54 57
44 40 37 33 30 24 31 30 26 32 34 36 37 37 38 38 38 39 40 40 40 41 40 41 41 41 40 40 41 40 40 41 41 42 42 43 45 46 47 48 47 48 49 50 52 54 54 54 56
38 36 25 21 22 23 33 28 29 35 37 37 36 36 37 37 37 37 37 37 38 39 38 39 38 37 40 40 40 40 40 40 40 40 40 41 41 42 43 45 45 45 47 48 49 50 51 53 54
33 36 30 20 19 22 32 23 32 38 39 39 39 38 38 36 36 35 35 35 36 38 38 37 37 37 38 39 39 40 40 40 39 40 40 40 40 40 42 43 44 45 46 47 48 49 51 53 54
35 34 37 30 29 24 26 31 35 38 36 37 37 37 36 35 35 35 35 36 36 36 37 35 36 37 38 38 39 39 39 39 38 38 39 38 39 40 40 41 41 43 44 45 46 47 49 51 54
39 41 29 29 23 21 25 26 25 31 33 34 34 34 35 36 35 36 35 36 36 37 36 35 36 36 37 38 38 38 38 38 38 38 36 37 38 38 38 39 40 41 42 43 43 44 46 47 50
35 33 35 33 30 22 21 23 30 34 35 33 34 35 35 34 34 34 34 35 36 36 35 34 35 35 36 37 38 37 37 38 38 37 37 37 37 37 37 38 39 39 39 40 40 41 43 43 46
42 38 36 28 24 27 20 22 39 38 38 38 37 37 36 35 33 33 34 35 35 34 34 34 35 35 35 37 36 36 36 37 36 35 35 35 35 37 37 37 38 38 38 38 38 38 39 41 43

GFSSGP_sfc_temp_123.txt.gz
Temp
70 73 76 77 70 67 61 62 66 68 69 76 76 75 76 76 74 72 86 85 82 81 81 80 74 75 75 75 75 76 76 77 77 77 77 77 76 76 76 76 76 77 79 79 79 79 79 78 76
73 74 76 70 66 62 61 63 65 69 72 74 73 76 77 75 79 81 85 83 83 82 81 81 73 74 75 75 75 75 76 76 76 76 76 76 77 76 76 76 76 77 78 79 79 79 78 76 75
73 74 74 65 59 61 61 64 67 70 73 74 74 79 77 75 80 81 85 81 82 81 82 81 73 73 74 74 75 75 75 76 76 76 76 76 76 76 76 75 76 77 78 79 79 79 77 75 74
75 76 69 65 58 60 62 67 69 71 74 77 72 73 79 78 77 80 82 82 81 80 81 75 72 73 74 74 74 74 74 74 75 75 76 76 76 76 76 75 76 77 78 78 79 78 75 73 73
72 70 64 59 57 60 65 68 70 69 69 73 73 71 73 80 81 81 81 81 81 80 81 80 71 72 74 74 74 74 74 73 74 74 75 75 76 76 75 74 75 76 77 77 77 77 74 73 72
69 67 61 58 56 61 66 69 70 68 69 73 73 71 75 82 83 81 81 81 81 80 79 80 74 72 72 73 73 72 72 73 73 74 74 75 75 74 74 74 74 75 75 75 75 74 73 72 72
66 64 59 55 55 58 64 70 68 67 68 70 74 70 76 81 81 81 80 79 79 79 78 78 79 77 71 70 71 71 72 72 72 72 73 73 73 73 73 74 74 74 74 73 73 73 72 72 72
65 64 55 56 56 59 65 68 69 68 68 75 76 69 71 79 82 81 83 83 81 79 77 77 77 78 78 78 70 70 70 71 71 72 72 71 71 72 72 72 73 73 73 73 73 72 72 72 71
65 60 56 57 56 61 65 64 69 73 70 71 74 75 78 80 82 81 79 81 81 79 79 77 76 77 77 78 77 72 71 71 70 72 71 71 79 79 79 75 72 72 71 71 72 71 70 70 70
64 57 57 60 61 61 62 63 65 67 68 67 71 76 77 77 76 75 75 74 76 77 80 78 76 76 76 77 77 78 78 79 79 78 77 76 76 77 78 75 70 70 70 70 70 70 70 70 81
57 57 58 61 62 62 61 63 66 65 62 68 67 69 72 73 73 72 74 75 74 76 76 79 76 76 75 76 77 78 78 76 76 76 75 74 75 76 76 76 78 78 73 80 77 77 78 78 80
56 59 60 61 61 60 60 63 63 64 66 70 70 70 71 72 71 71 73 74 75 76 77 76 77 75 75 77 76 73 73 73 74 74 74 74 72 72 72 75 75 75 76 77 79 79 77 77 77
56 58 59 61 60 61 61 59 60 62 68 69 70 70 70 70 72 73 73 73 73 73 74 75 76 75 75 74 73 73 73 71 72 72 72 72 72 72 72 72 72 74 77 74 74 76 76 74 74
57 57 58 59 61 59 57 58 60 61 66 66 67 68 69 69 68 67 65 64 65 66 65 66 64 63 72 72 72 70 69 68 68 68 69 72 70 70 70 71 71 71 71 72 74 74 74 74 73
58 53 56 57 58 57 59 56 58 62 65 65 66 67 69 66 61 58 57 58 59 61 61 61 62 59 59 64 65 67 64 65 65 64 64 65 65 65 68 70 69 71 72 70 72 70 71 73 74
52 51 49 55 57 56 59 49 59 63 63 63 64 65 65 57 55 55 56 56 57 57 57 58 57 55 56 59 62 64 64 63 63 63 63 64 64 64 64 64 65 66 67 71 72 69 68 68 70
47 46 43 50 56 56 55 49 59 64 61 60 62 62 60 54 52 52 53 54 54 54 53 52 52 51 53 58 61 61 61 62 63 63 63 62 62 62 64 64 64 62 63 65 67 69 69 69 69
43 43 43 44 53 53 50 50 56 60 58 54 54 56 52 49 48 50 51 52 52 52 51 50 50 49 51 56 59 61 61 60 60 60 60 59 59 60 61 64 63 63 64 65 65 65 67 68 69
45 44 43 47 52 47 48 49 53 55 51 48 50 51 48 47 50 51 51 51 51 51 50 49 47 48 49 52 52 56 56 57 57 57 57 57 57 57 59 60 60 61 62 63 64 64 63 65 67
46 43 43 47 50 49 49 48 49 49 46 44 45 45 45 46 47 47 47 48 48 48 48 48 47 47 47 50 51 52 52 56 55 55 55 55 56 56 57 57 57 57 57 60 61 63 63 65 65
43 42 42 42 47 49 46 44 44 47 48 45 45 46 45 43 42 43 44 44 44 44 45 45 44 45 45 47 51 52 53 53 53 53 53 53 54 54 54 54 54 54 54 53 54 58 61 62 64
39 47 46 43 42 37 46 35 42 43 44 43 42 39 39 40 41 42 43 43 44 43 45 46 44 43 44 45 46 47 43 43 47 49 51 52 52 52 52 52 52 52 53 53 54 56 55 58 60
44 47 45 43 41 38 40 37 38 42 40 36 38 39 39 40 40 40 42 43 45 44 45 42 46 43 43 43 45 43 42 43 45 47 47 48 50 50 49 49 49 49 50 51 51 53 54 56 56
48 45 43 40 39 31 39 39 37 37 39 37 38 39 40 40 40 41 42 42 41 42 42 45 43 42 42 42 42 40 40 41 41 42 42 43 46 47 47 47 47 47 48 48 49 50 51 53 55
47 42 33 30 27 31 38 35 43 38 41 43 41 39 39 40 39 39 38 39 40 40 40 40 39 38 41 43 42 41 41 41 40 39 40 41 42 42 43 44 44 45 46 47 48 49 50 51 52
42 43 34 25 26 33 37 33 40 42 42 43 42 42 40 38 38 37 38 38 38 39 40 40 40 40 41 41 40 41 42 41 40 40 40 40 40 41 43 42 43 43 44 45 46 47 48 50 51
40 37 46 36 33 29 38 39 38 40 38 39 39 40 38 37 37 37 38 38 38 39 38 38 38 39 39 40 40 40 40 40 39 40 40 40 41 41 41 41 41 42 43 43 44 44 46 47 47
45 47 34 34 26 24 34 35 36 33 33 37 37 36 36 37 36 37 38 38 39 39 39 38 38 38 38 39 39 39 39 39 39 39 37 38 39 39 39 40 40 41 41 41 41 42 43 44 45
40 39 39 38 34 30 29 34 38 36 39 37 37 37 36 37 37 37 38 39 40 39 38 37 37 37 37 38 38 37 37 38 38 37 37 37 38 38 38 38 39 39 39 40 39 40 42 42 44
47 43 41 31 29 30 29 34 44 45 45 41 39 38 39 38 37 37 38 39 38 37 37 37 36 36 36 37 37 36 37 37 36 36 36 36 35 36 36 37 37 38 38 39 38 39 40 39 40

GFSSGP_sfc_temp_126.txt.gz
Temp
81 90 93 89 79 80 73 72 79 77 78 85 85 82 84 86 81 76 95 94 91 92 90 83 74 75 76 76 76 76 77 77 77 77 77 77 77 77 76 76 76 77 79 79 79 79 79 79 77
90 88 90 89 75 72 72 76 74 77 80 85 84 83 83 80 88 89 93 92 93 93 91 89 74 75 75 75 76 76 77 77 77 77 77 76 77 77 76 76 76 77 78 79 79 79 79 77 76
86 88 86 82 79 73 72 75 76 80 82 84 83 88 83 79 87 89 92 91 92 92 93 89 74 74 75 75 75 76 76 76 76 76 77 77 77 77 76 75 76 77 78 79 80 79 78 76 75
89 89 86 75 71 72 74 77 78 80 83 86 84 80 86 88 86 90 91 92 92 91 92 78 73 74 75 75 75 75 75 75 75 75 76 77 77 77 76 75 76 77 78 79 79 78 76 74 74
91 86 76 73 70 73 77 77 78 77 77 81 83 77 81 89 92 92 92 92 90 90 91 88 72 73 74 75 75 75 74 74 74 75 75 76 76 76 75 75 75 76 77 78 77 77 75 74 73
83 83 72 71 70 73 77 79 78 77 78 81 80 80 81 91 91 91 92 91 90 88 89 89 76 73 73 74 74 73 73 74 74 74 75 75 75 75 75 74 75 75 75 75 75 75 74 73 73
77 77 72 71 69 70 73 79 75 75 77 77 81 76 83 88 90 92 92 92 91 89 86 87 87 83 71 71 71 71 72 72 73 73 74 74 74 74 74 74 74 74 74 74 74 74 73 73 73
82 79 70 72 70 69 74 76 77 76 77 82 84 76 77 85 89 92 92 93 93 90 88 86 86 85 86 86 71 71 71 71 72 72 72 72 72 73 73 73 73 74 74 73 73 73 72 72 72
80 73 72 69 68 69 74 73 79 81 77 79 81 81 83 86 90 89 89 90 89 88 88 88 86 86 86 86 84 73 72 72 71 73 71 73 84 85 83 77 74 73 72 72 72 72 71 71 71
76 72 70 71 72 71 72 71 74 74 76 75 78 83 83 85 85 83 84 84 85 85 87 89 87 85 85 88 86 85 86 86 84 85 85 83 84 86 85 80 72 71 71 71 71 71 70 71 86
72 69 70 70 71 72 72 72 74 72 70 75 71 76 79 81 81 80 82 84 83 85 87 89 86 86 85 87 88 88 89 88 86 84 83 80 79 79 81 84 84 83 74 83 79 79 80 83 86
66 70 70 71 70 70 69 73 71 74 74 78 77 77 80 79 79 78 78 79 80 81 83 83 84 85 85 87 87 88 88 86 85 83 80 80 79 80 80 77 79 83 86 83 80 79 82 83 85
66 68 68 70 70 71 72 69 70 72 74 77 77 78 78 77 76 77 76 76 75 74 74 75 76 74 77 82 85 83 83 82 83 81 81 76 75 77 78 75 74 75 79 80 80 80 80 81 82
65 65 67 69 70 70 65 68 67 70 73 74 76 77 77 71 70 71 70 70 69 70 70 70 69 69 65 64 70 74 76 77 76 75 78 77 74 74 75 76 75 74 74 76 77 77 77 76 75
65 61 67 68 67 66 68 65 65 71 73 73 74 74 73 66 66 64 65 66 67 68 67 64 63 63 64 61 63 65 68 69 68 67 67 69 69 68 73 77 77 77 78 74 74 75 75 73 73
62 61 60 64 65 64 67 62 68 72 72 71 72 70 67 62 61 61 62 64 65 64 61 62 61 59 60 62 63 64 65 66 65 66 67 67 67 66 66 68 68 69 70 68 73 73 74 72 70
59 59 57 60 65 64 63 59 68 73 70 67 67 68 63 60 60 60 61 62 63 62 58 58 58 56 56 57 61 64 64 66 67 67 67 65 67 67 68 71 71 69 68 68 66 68 71 71 71
59 56 57 58 63 63 61 62 65 69 66 61 64 62 60 58 56 58 59 60 61 62 59 55 54 56 57 57 59 63 65 65 67 68 66 65 66 66 68 72 71 71 73 74 70 66 67 67 68
57 56 56 61 63 57 58 60 64 64 62 59 59 57 56 54 57 58 57 58 60 59 58 56 52 50 51 56 55 56 57 66 66 66 64 64 64 63 65 68 69 70 70 71 71 72 72 72 72
56 54 55 59 59 56 59 58 59 58 54 54 54 53 51 52 54 55 57 57 56 57 56 55 52 50 50 51 51 57 57 63 64 64 63 63 61 61 61 58 59 58 60 63 65 68 69 72 71
55 53 54 52 57 60 55 57 53 55 53 52 51 52 51 49 50 53 53 55 57 56 56 57 55 51 50 50 52 54 58 60 59 60 61 59 59 57 54 54 54 54 55 56 56 57 59 65 72
52 57 54 51 50 48 55 45 54 56 52 52 52 49 50 50 51 50 53 50 53 53 53 55 52 55 54 53 52 52 56 56 56 58 57 57 57 53 52 51 52 53 53 53 53 56 55 56 58
53 55 53 52 50 49 51 45 56 56 52 52 52 48 48 48 47 48 47 47 48 48 48 49 53 52 51 51 48 49 50 52 56 56 53 53 53 53 51 50 50 50 51 51 50 50 51 53 54
57 52 51 51 50 39 50 48 56 51 54 54 52 50 49 46 46 45 46 47 47 50 51 50 50 50 50 46 48 48 46 45 47 48 48 50 49 49 49 49 49 49 49 48 49 50 50 51 52
55 50 42 40 39 40 48 46 52 56 54 54 52 51 47 47 44 43 45 47 49 48 49 50 50 50 49 47 45 45 43 45 44 43 42 43 43 44 46 46 46 47 47 48 48 48 50 51 50
51 51 43 32 38 43 46 40 51 54 54 53 54 52 48 43 42 44 44 45 45 46 45 46 47 47 48 46 45 46 45 44 44 43 41 41 42 43 44 44 45 45 46 46 47 47 49 51 50
48 43 55 44 45 37 46 53 47 48 45 48 49 47 43 42 43 42 44 43 44 46 43 42 44 45 45 45 44 43 42 42 41 43 43 41 41 43 43 43 43 43 44 44 45 45 46 47 48
52 57 39 42 31 32 44 47 46 39 38 44 45 43 41 42 42 44 48 45 44 44 43 42 42 41 42 43 43 42 41 41 42 43 41 41 41 41 40 40 41 41 42 42 43 43 44 44 45
47 46 47 47 44 36 36 42 49 45 49 45 47 46 41 42 45 46 48 48 45 44 43 41 41 41 40 41 42 41 41 41 41 41 40 40 41 40 39 39 40 40 40 41 41 41 41 40 41
58 52 50 37 35 39 37 39 56 55 56 54 52 47 43 46 45 47 48 47 44 42 42 41 40 40 40 41 41 40 40 41 41 40 40 40 40 41 40 40 39 40 40 40 39 39 39 38 37

GFSSGP_sfc_temp_129.txt.gz
Temp
79 93 99 94 80 83 80 79 85 82 84 90 90 87 85 88 83 76 98 97 97 97 93 85 75 76 76 76 76 77 77 78 77 77 77 77 77 76 76 76 76 77 79 80 79 79 80 79 77
94 97 95 90 78 76 79 84 80 83 85 90 90 89 87 81 90 92 94 97 99 98 93 91 74 76 76 76 76 76 77 78 77 77 77 76 76 76 76 76 76 77 78 79 80 80 79 78 76
91 96 87 85 81 76 78 83 83 85 88 88 88 93 87 81 90 92 96 97 98 97 97 87 75 75 76 76 76 76 76 77 77 77 77 77 77 77 76 76 76 77 78 79 80 80 78 76 75
94 94 90 78 77 80 81 83 84 85 87 90 90 84 89 93 89 94 97 98 97 96 97 78 74 74 75 76 76 76 76 75 76 76 76 77 77 77 76 75 76 77 78 79 79 78 76 75 74
95 90 79 78 78 80 84 85 84 82 83 86 89 83 84 92 97 96 96 97 94 95 95 87 74 74 75 75 76 75 75 74 75 75 76 76 76 76 76 75 75 76 77 78 78 77 75 74 74
84 88 76 75 78 80 83 85 84 81 84 86 85 84 84 94 94 95 96 94 94 92 93 90 75 74 74 74 74 74 74 74 74 75 75 76 76 75 75 75 75 75 75 76 76 75 74 74 74
81 82 77 78 76 76 80 85 81 81 82 82 85 81 87 90 92 96 96 97 95 92 90 90 90 81 72 72 72 72 73 73 74 74 74 75 74 74 74 74 74 75 74 74 74 74 74 74 73
84 83 77 79 76 75 80 82 83 82 81 86 88 81 81 86 93 95 96 96 95 92 90 90 90 89 89 87 71 72 72 72 73 73 73 73 73 74 73 74 74 74 74 73 73 73 73 73 72
88 76 76 76 74 76 80 79 85 86 83 84 86 85 86 89 93 92 92 92 92 91 90 90 89 90 90 90 86 73 72 73 72 73 72 73 83 85 83 78 75 73 72 71 72 71 72 71 71
80 77 77 80 79 78 79 78 80 79 80 80 82 87 87 88 88 85 87 87 87 87 89 92 87 86 88 92 91 88 88 85 84 85 85 83 84 86 88 82 73 72 72 71 71 71 70 71 84
81 75 77 78 78 79 79 78 81 78 75 79 76 79 83 85 85 83 84 85 83 85 87 84 82 84 87 89 92 92 92 91 89 84 83 82 83 85 83 85 83 82 74 82 78 79 81 82 84
71 79 77 79 76 76 76 80 77 79 79 83 81 81 83 82 81 79 78 79 79 80 80 79 78 76 76 78 90 92 92 92 91 90 84 81 81 82 81 82 82 81 85 82 81 78 81 82 84
73 77 76 78 76 76 77 74 75 77 81 81 81 81 81 80 77 79 77 77 76 74 74 72 73 71 73 72 71 76 82 86 87 85 82 80 80 78 79 79 79 80 80 80 80 81 79 77 78
74 74 74 76 76 76 72 74 74 78 80 79 79 79 78 74 73 74 73 72 71 70 69 68 69 68 70 67 64 64 65 67 70 69 68 69 69 74 76 77 77 77 78 80 79 78 79 78 79
73 67 74 75 76 72 73 70 71 79 78 77 78 78 75 70 70 67 68 68 69 69 68 65 65 64 65 68 65 65 62 63 63 65 65 66 66 65 66 69 72 73 75 76 76 77 77 78 78
68 70 65 76 73 72 70 66 76 78 76 76 77 76 72 67 67 68 68 69 70 66 63 65 65 64 64 64 68 64 61 62 63 66 65 65 67 67 66 67 66 68 68 68 72 72 69 72 74
67 63 65 67 74 72 69 67 76 79 75 73 74 74 69 66 65 66 67 68 68 68 65 64 62 61 64 65 64 65 64 63 64 65 65 65 66 67 67 70 71 70 70 69 69 68 68 70 69
63 62 66 65 70 68 67 67 74 77 74 69 72 69 67 64 62 63 65 66 68 67 65 63 61 60 61 66 66 65 61 64 65 64 64 65 66 67 69 72 72 72 73 74 74 71 72 67 67
67 63 64 70 73 65 63 66 71 75 71 69 69 67 64 61 63 64 63 64 65 64 63 62 60 59 60 60 61 64 61 60 61 63 65 66 65 64 64 64 65 65 65 66 67 69 70 72 72
63 61 62 68 70 63 63 64 71 71 68 66 65 63 62 62 63 62 63 63 63 62 62 62 62 61 61 62 61 62 63 65 61 60 63 64 63 60 59 56 57 58 58 58 60 60 61 67 72
62 60 61 61 66 67 63 60 66 66 64 63 62 62 61 60 60 60 60 60 60 59 59 61 61 61 60 60 63 63 64 64 63 63 58 60 61 59 55 55 56 55 56 55 55 56 55 55 63
57 67 61 58 57 52 63 49 62 64 59 60 62 61 60 60 59 59 57 56 56 57 57 57 58 58 58 57 58 56 58 58 60 60 61 60 60 58 56 54 53 53 54 53 53 55 53 52 51
59 61 59 59 56 56 58 53 61 69 59 61 63 61 59 57 55 54 52 53 56 57 57 57 57 58 55 54 53 54 53 54 56 56 56 58 58 57 55 53 52 51 52 51 51 51 51 52 50
63 57 57 58 56 43 54 55 57 64 62 65 65 62 59 54 53 52 53 54 55 56 55 57 57 57 55 54 52 49 48 47 48 47 48 50 53 54 52 51 51 50 49 49 49 49 49 50 51
59 54 44 43 43 42 57 52 58 64 65 66 62 61 59 55 51 52 53 52 52 54 54 54 54 53 52 51 50 49 49 49 48 45 44 43 45 44 46 48 47 46 47 47 48 47 48 49 49
55 55 46 37 41 49 55 45 56 65 65 63 62 62 57 51 50 51 52 53 53 54 51 51 52 51 50 49 48 47 47 47 47 45 44 43 43 43 44 43 45 44 45 47 46 47 47 48 47
56 49 60 48 49 43 50 58 58 60 57 57 57 58 52 49 50 49 50 52 52 52 47 47 48 49 47 46 46 45 45 45 44 45 44 43 43 44 43 43 42 44 45 45 45 44 44 44 45
59 61 44 46 34 34 46 50 52 48 49 53 54 53 48 48 48 51 53 52 52 49 47 45 45 45 45 45 45 45 44 45 44 44 42 43 43 43 43 42 42 44 43 43 43 42 42 42 41
53 50 52 51 47 38 38 45 57 52 55 52 55 55 48 47 50 51 53 53 51 50 47 44 44 44 44 44 44 44 44 44 44 43 42 42 42 41 41 41 42 42 42 42 41 41 40 39 39
60 54 52 40 39 44 43 44 63 62 62 61 59 58 51 49 51 54 54 53 50 48 46 45 43 43 44 45 44 44 45 45 44 42 42 42 40 40 40 41 42 42 41 41 41 40 39 38 37

GFSSGP_sfc_temp_132.txt.gz
Temp
78 92 88 90 73 76 73 79 86 83 83 89 91 86 82 83 78 66 93 96 96 90 83 82 75 76 76 76 76 77 77 77 77 77 76 76 76 76 76 76 76 77 78 79 79 79 79 78 77
85 92 93 84 71 69 75 83 80 83 86 90 89 89 84 77 88 87 89 95 97 93 88 86 75 76 76 76 76 77 77 78 77 77 76 76 76 76 76 76 76 77 78 79 79 79 79 77 76
83 92 81 78 74 70 73 82 82 85 89 89 87 89 84 80 88 89 94 96 96 93 91 80 75 75 76 76 76 76 77 77 77 76 76 76 76 76 76 75 76 77 78 79 79 79 78 76 75
91 90 85 72 71 80 80 83 85 85 88 91 89 79 86 91 89 93 96 96 93 89 85 75 75 75 75 76 76 76 76 75 76 76 76 76 76 76 76 75 76 77 78 78 79 78 76 75 74
93 85 74 73 76 80 84 85 85 83 84 86 89 78 79 90 94 94 93 93 89 89 85 80 74 75 75 76 76 75 75 75 75 76 76 76 76 76 76 75 75 76 77 77 77 77 75 74 74
80 84 71 70 76 81 84 86 85 83 84 85 84 83 80 90 90 92 92 89 88 86 86 82 76 75 74 74 74 74 74 75 75 75 75 76 76 75 75 75 75 75 75 75 75 75 75 74 74
78 76 72 75 77 77 81 86 82 82 82 81 86 80 82 85 90 93 92 88 85 84 84 85 81 78 73 73 73 73 73 74 74 74 74 75 74 74 75 75 75 75 74 74 74 74 74 74 73
84 79 72 76 75 74 81 83 85 82 78 88 87 79 74 83 91 92 92 91 87 82 81 81 81 84 80 77 71 72 72 72 73 73 73 73 73 74 73 73 74 74 74 74 73 73 73 73 72
88 71 69 76 77 75 82 80 85 87 83 85 87 83 84 88 91 88 87 87 85 83 81 77 76 77 78 84 81 72 73 73 72 73 72 71 75 78 77 75 74 73 72 72 72 72 71 71 72
77 71 74 79 80 78 80 79 82 79 80 81 83 85 86 87 85 82 82 80 79 79 78 77 73 72 74 84 80 79 80 77 77 78 78 75 76 78 82 78 73 72 71 71 71 71 71 70 75
78 69 77 78 75 80 80 79 83 77 75 80 78 80 83 84 81 78 79 78 76 77 75 72 70 69 70 71 75 77 81 80 80 79 79 78 78 77 76 75 74 73 71 75 72 72 72 75 75
73 78 80 80 78 77 76 81 78 79 79 83 82 82 82 80 76 76 74 73 73 72 69 68 69 66 67 69 68 68 69 71 76 75 76 75 74 75 74 74 74 73 73 73 74 75 75 75 77
74 76 80 79 78 76 78 74 74 76 82 82 82 81 78 75 75 75 74 72 71 68 66 65 66 64 66 66 65 64 64 64 66 66 67 68 69 70 72 72 72 71 72 72 71 73 74 75 75
78 76 77 78 77 77 73 73 75 78 81 80 80 79 74 72 70 70 69 68 67 66 65 64 64 63 64 64 63 62 63 62 63 63 63 65 65 64 65 67 70 70 69 69 70 71 72 72 75
76 68 72 74 75 73 74 66 69 78 78 77 78 77 71 69 69 67 67 67 67 66 65 62 62 61 62 61 63 61 62 62 62 62 62 62 62 63 64 65 66 67 68 67 67 68 69 70 71
67 69 61 75 76 73 71 62 77 78 75 75 78 77 69 67 67 67 67 67 68 66 63 62 62 60 61 61 61 62 60 62 62 62 62 62 64 64 64 66 66 67 67 66 66 66 66 67 67
65 59 63 68 76 72 69 66 73 78 75 73 75 75 69 66 65 65 66 66 66 64 62 61 60 58 59 61 63 62 60 62 62 61 60 62 62 63 63 65 66 66 66 67 67 66 66 65 66
60 60 64 65 70 70 67 65 73 77 76 73 73 72 67 65 63 63 64 64 64 64 63 61 60 59 59 60 61 63 61 61 61 62 61 62 61 60 60 60 59 60 60 60 60 60 63 63 63
67 65 63 69 74 67 64 65 69 74 76 71 69 69 66 64 64 64 64 63 63 61 61 60 59 58 58 58 57 58 57 59 58 59 58 60 59 57 57 56 56 57 56 56 57 56 56 57 61
65 62 61 67 72 70 65 63 69 72 74 71 70 65 64 63 64 62 62 61 59 58 58 59 58 58 57 57 58 59 58 59 59 58 57 57 57 57 55 53 53 54 54 55 55 55 54 54 56
63 60 61 61 68 68 63 59 64 70 73 68 67 68 65 63 62 60 59 57 57 56 55 56 56 57 55 55 57 57 59 59 57 57 57 57 56 56 53 53 53 52 52 51 51 52 51 49 53
56 67 65 63 58 50 65 47 62 64 63 62 62 61 61 61 60 59 57 55 56 55 57 57 57 56 55 54 52 51 51 50 52 53 53 55 55 53 52 51 51 51 51 50 50 51 50 50 48
60 67 62 62 56 54 55 51 57 67 58 59 61 61 61 60 58 55 54 55 56 55 55 56 57 55 54 53 51 49 48 48 50 49 49 49 50 50 49 48 49 48 49 48 48 48 48 49 48
69 60 59 58 54 41 51 51 53 60 63 61 63 63 60 56 55 54 55 56 55 55 54 54 54 53 52 51 50 48 46 47 47 46 45 45 46 46 46 45 46 47 46 46 46 47 47 47 48
62 52 41 39 40 39 57 53 55 64 67 66 62 60 58 55 53 53 54 54 53 52 51 52 53 50 49 48 48 46 46 46 45 43 43 42 42 43 43 44 43 44 45 45 46 46 46 46 45
55 53 44 34 37 44 58 47 55 65 65 67 65 61 57 53 52 53 53 54 53 51 48 49 50 48 47 46 46 45 45 44 44 43 43 42 41 42 43 43 43 44 44 44 44 44 44 44 43
54 48 58 47 48 40 47 56 60 61 58 60 60 58 52 50 50 50 51 52 52 50 46 46 47 47 46 45 45 44 44 43 43 43 43 42 42 43 42 42 42 43 43 43 43 42 41 42 41
58 62 44 45 33 32 44 47 46 50 50 55 55 53 51 50 50 51 53 52 51 49 46 46 45 44 45 44 44 44 44 44 43 43 41 41 41 41 41 41 42 41 41 42 42 41 41 40 39
53 50 52 51 45 36 35 41 57 52 55 53 55 56 51 49 50 51 53 53 51 49 46 44 44 44 43 44 44 43 43 44 43 42 42 41 41 42 41 42 41 40 39 40 41 40 40 38 38
60 54 53 38 38 41 40 41 59 57 59 59 59 59 54 52 52 53 54 53 50 48 47 44 44 44 44 44 45 44 45 45 44 42 42 42 42 42 42 42 41 39 37 38 38 39 40 38 37

GFSSGP_sfc_temp_135.txt.gz
Temp
68 75 71 70 58 55 51 60 67 70 72 74 81 77 73 73 70 59 80 84 81 77 76 77 75 75 76 76 76 76 76 76 76 76 76 76 76 76 76 76 76 77 78 79 79 79 79 78 77
70 78 73 66 53 47 54 66 67 71 77 80 81 79 75 71 81 81 81 87 83 81 79 76 75 75 76 76 76 76 77 77 76 76 76 76 76 76 76 75 75 76 78 79 79 79 78 76 75
72 78 64 58 52 49 54 66 71 76 81 79 75 79 78 74 83 82 85 86 86 83 80 77 74 74 75 75 76 76 76 76 76 76 76 76 76 76 76 75 75 76 78 78 79 79 77 75 74
75 69 66 54 54 60 65 67 73 76 80 78 77 72 79 84 82 84 87 86 82 79 77 73 73 74 75 75 75 75 75 75 75 75 76 76 76 76 75 75 75 76 77 78 78 78 76 74 74
72 65 54 51 58 64 70 74 77 75 77 77 77 70 71 80 85 84 83 85 80 78 76 75 73 74 75 75 75 75 74 74 75 75 75 75 76 76 75 74 75 75 76 76 77 76 75 74 73
64 64 50 49 60 70 71 74 76 78 79 77 74 72 70 79 81 80 82 79 79 77 76 76 75 74 74 74 74 74 73 73 74 74 75 75 75 75 75 74 74 74 74 75 75 74 74 73 73
60 55 52 56 62 65 73 77 74 74 74 73 79 68 70 76 80 80 77 77 76 75 74 74 74 75 73 72 72 72 73 73 73 74 74 74 73 73 74 74 74 74 74 74 74 73 73 73 72
66 61 57 58 61 59 70 75 77 75 69 81 81 67 63 72 80 79 76 74 75 73 71 70 70 70 72 73 71 71 72 72 72 73 73 72 72 73 73 73 73 73 73 73 73 73 73 72 72
68 54 50 58 62 64 75 71 74 77 76 78 76 74 77 79 79 75 71 72 71 70 67 67 66 67 68 73 74 71 72 72 72 72 72 70 71 72 73 72 72 72 72 71 72 72 71 71 71
62 52 57 66 66 66 69 73 73 73 74 74 73 77 79 77 74 70 67 66 64 63 64 65 64 64 66 72 67 67 72 72 71 71 71 70 70 71 76 73 71 72 71 71 71 71 70 70 72
61 56 65 66 69 68 66 69 74 69 67 70 69 71 72 71 68 67 66 65 62 62 62 62 62 62 63 64 64 65 66 67 68 69 72 71 73 71 72 71 71 70 70 71 70 71 71 71 71
59 68 69 68 69 67 65 67 66 69 67 73 72 74 70 68 66 65 62 62 60 60 60 60 60 60 61 61 62 62 64 65 64 64 65 67 68 69 69 70 69 69 70 69 70 70 72 71 72
63 66 70 70 69 68 70 64 64 63 71 74 75 70 67 65 64 64 62 61 59 57 57 57 58 58 60 60 60 60 61 62 62 61 63 62 62 63 64 66 68 68 67 67 67 68 70 70 71
66 66 65 65 67 69 66 65 63 68 69 72 69 65 64 63 61 59 59 58 57 58 56 56 55 55 56 57 56 57 60 62 61 61 62 63 60 60 61 63 65 66 66 65 65 65 66 66 67
68 58 62 64 64 64 65 57 61 67 70 70 65 63 62 61 59 57 57 57 57 57 56 55 56 54 54 55 56 55 56 58 59 61 60 61 60 61 62 63 65 65 64 64 64 64 65 65 67
59 57 48 62 65 64 63 52 64 67 68 66 60 62 60 59 58 57 57 56 55 55 54 54 57 53 53 53 55 55 55 55 55 57 59 59 59 59 60 60 58 60 60 62 61 61 62 62 63
53 43 50 57 67 62 59 55 61 68 69 66 60 57 58 56 56 56 56 55 55 53 54 53 52 52 53 53 54 54 55 55 55 56 57 57 57 57 57 57 58 58 58 56 56 56 55 56 58
45 48 46 50 55 60 55 57 63 66 67 66 59 58 56 54 54 57 56 55 54 52 53 53 52 51 52 51 52 53 53 53 53 53 55 56 55 56 54 55 55 55 55 55 54 53 54 53 54
56 54 52 57 63 58 56 55 62 66 63 58 57 57 54 54 56 56 55 53 52 51 51 51 50 49 50 50 50 49 49 51 51 52 53 54 53 53 53 53 52 53 52 53 53 53 52 51 52
57 54 52 58 64 58 55 53 59 63 62 61 58 55 54 54 54 55 52 49 49 48 49 50 49 48 49 49 49 48 48 51 51 51 52 52 52 50 51 49 51 51 51 52 51 51 50 52 52
56 54 54 54 59 54 53 48 54 62 61 60 59 58 57 54 53 53 51 48 47 46 47 49 48 47 47 47 48 49 49 50 48 47 48 49 50 48 46 47 47 48 49 48 49 49 49 47 51
50 61 60 57 52 43 52 38 51 55 60 56 56 54 53 54 52 51 48 47 46 45 47 48 48 47 48 46 45 43 42 41 43 43 45 46 47 46 44 44 46 47 47 47 47 49 48 47 46
55 61 56 54 47 44 46 41 46 55 50 51 52 53 53 52 48 47 47 47 47 47 45 47 47 46 46 44 42 40 39 41 43 42 43 43 45 46 44 43 43 45 45 46 46 46 46 47 46
64 56 53 50 46 30 45 43 43 49 56 53 55 54 52 48 48 49 50 49 47 45 45 44 44 44 44 43 42 40 39 39 39 40 42 43 44 44 44 45 44 44 44 44 44 45 46 45 45
57 46 29 29 28 30 49 45 49 55 60 57 54 52 49 48 46 47 47 46 44 43 43 45 42 41 41 42 42 42 43 43 40 41 41 40 40 41 41 42 42 43 44 44 44 44 44 43 42
52 49 34 28 27 34 50 37 47 57 59 60 58 51 49 46 47 46 47 46 44 42 40 40 42 40 42 44 42 44 43 42 42 41 41 40 40 40 42 41 42 42 43 43 43 42 42 42 41
49 44 53 41 40 28 38 46 52 54 53 53 51 48 45 45 45 45 46 45 42 39 39 38 39 40 44 44 43 43 43 42 41 41 41 40 41 42 41 42 41 41 41 42 42 40 40 40 40
53 56 40 37 29 28 37 40 36 43 45 50 46 44 43 44 44 45 45 44 42 40 39 38 39 41 43 43 43 43 42 42 42 41 40 40 40 41 42 41 39 38 38 38 41 39 40 39 38
49 47 47 45 39 29 27 29 48 46 49 48 47 46 43 43 43 45 45 44 42 40 38 38 40 42 42 43 42 42 42 42 41 41 41 40 38 39 40 38 36 36 36 37 38 39 38 37 37
54 50 48 34 33 32 29 31 53 52 53 53 51 48 45 46 46 46 46 44 42 40 38 38 41 42 40 43 43 43 39 39 37 37 37 37 37 38 37 36 33 34 35 36 37 37 37 35 34

GFSSGP_sfc_temp_138.txt.gz
Temp
66 69 67 68 58 53 47 56 62 63 67 72 75 72 68 69 68 59 76 77 77 74 74 76 74 75 76 76 75 75 76 76 76 76 75 76 76 76 76 76 76 77 78 79 78 78 78 78 76
67 76 69 61 51 46 51 60 61 68 73 77 77 75 72 68 78 74 75 80 79 77 75 75 74 74 75 75 75 75 76 76 76 76 76 76 76 76 75 75 75 76 77 78 78 78 78 76 75
70 74 63 55 46 48 51 62 67 70 76 74 72 75 74 70 77 78 81 81 80 78 77 75 73 74 75 75 75 75 76 75 75 75 76 76 76 76 75 75 75 76 77 78 79 78 76 75 74
72 67 62 53 47 57 61 65 69 69 71 74 73 69 74 79 78 80 82 81 78 76 75 72 72 73 74 75 75 75 75 74 74 75 75 76 76 76 75 74 75 76 77 78 78 77 75 74 73
66 60 51 46 51 61 65 69 72 71 70 72 73 67 68 77 81 81 80 80 75 74 73 73 71 73 74 75 75 74 74 73 74 74 74 75 75 75 75 74 74 75 76 76 76 76 74 73 73
61 58 47 45 53 63 67 69 73 71 71 72 70 68 67 75 76 76 75 72 73 71 72 71 73 72 72 73 73 73 73 73 74 74 74 74 74 74 74 74 74 74 74 74 74 74 73 73 72
57 52 46 48 56 60 69 70 69 71 70 67 74 65 68 72 73 73 71 70 68 67 67 66 67 68 69 70 70 70 71 73 73 73 73 74 73 73 73 74 74 74 73 73 73 73 72 72 72
61 56 47 49 56 57 66 71 69 71 67 77 74 64 63 67 72 71 70 67 66 65 63 64 64 65 67 69 68 70 70 70 71 72 71 71 72 72 72 72 73 73 72 72 72 72 72 72 71
62 51 46 52 55 60 70 68 70 73 72 71 72 72 70 72 71 67 64 63 62 64 61 62 61 62 64 68 68 68 69 70 70 71 70 69 71 71 72 72 71 72 71 71 71 71 70 69 70
56 49 54 62 60 61 65 69 68 69 67 68 69 70 70 69 66 62 60 58 59 59 60 60 59 59 62 67 63 64 68 68 67 67 70 69 69 69 73 71 70 70 70 70 70 70 70 69 70
54 53 59 64 65 63 63 66 70 66 61 68 65 64 65 64 62 60 59 58 57 58 59 58 58 58 58 59 60 61 65 65 64 63 64 67 70 69 70 70 71 70 70 70 70 70 70 71 70
55 63 64 65 66 65 63 63 64 63 66 69 67 65 63 61 59 58 56 56 56 56 56 56 56 56 56 57 57 58 62 64 62 62 62 62 63 63 65 67 68 67 68 68 68 68 69 69 70
60 63 66 66 67 65 68 63 61 59 65 67 67 64 60 60 59 59 57 56 55 54 54 53 55 54 55 55 55 56 56 59 60 61 62 61 60 59 61 63 64 64 65 65 65 65 66 67 68
63 63 60 62 62 64 64 61 61 65 64 63 62 59 59 58 58 56 55 54 54 54 52 53 53 52 53 53 54 53 54 56 56 59 60 61 59 57 58 60 62 61 62 62 63 62 64 64 65
64 57 60 60 59 61 63 53 59 65 62 59 58 57 56 57 57 53 53 52 53 52 53 53 54 52 51 51 53 53 53 55 55 56 56 56 57 57 59 58 57 56 59 57 57 57 58 60 62
57 55 49 59 62 62 62 51 61 64 60 55 55 56 55 55 54 53 52 52 51 52 51 52 54 51 50 51 51 52 52 51 52 53 54 54 55 55 54 55 53 55 57 56 55 54 53 54 56
50 44 49 54 62 59 56 53 62 63 61 55 54 52 53 52 52 53 53 52 50 50 50 49 49 49 49 49 50 51 51 50 50 51 52 53 53 53 52 52 51 53 54 55 55 52 51 51 52
46 44 44 46 53 56 52 54 58 62 62 56 51 51 52 52 51 53 52 51 49 48 48 49 49 48 48 48 49 50 50 49 50 51 51 51 51 51 50 51 50 51 53 51 51 50 51 50 50
50 48 46 49 59 54 55 56 55 60 58 52 51 51 51 50 51 52 51 49 48 47 48 47 46 46 46 45 44 46 45 47 48 49 50 49 48 48 47 47 48 49 48 48 49 49 48 48 51
51 48 48 53 60 55 49 51 57 60 60 54 52 50 49 50 50 49 47 46 46 46 47 46 45 45 44 44 43 44 44 45 45 46 47 47 46 45 46 44 45 46 46 47 47 47 46 48 51
51 49 50 50 56 52 49 45 52 59 59 57 55 53 52 50 47 47 47 44 44 44 45 45 44 44 44 44 44 43 44 44 44 43 43 44 45 44 43 43 43 46 47 45 46 47 46 45 49
46 57 56 55 49 39 51 38 47 53 54 53 53 51 50 50 49 48 46 43 43 43 44 44 44 43 44 42 40 39 38 38 39 39 41 42 44 43 42 42 42 44 45 44 45 47 46 46 44
50 58 54 54 47 41 44 38 42 52 49 48 49 51 51 49 47 46 45 45 43 43 42 42 42 42 41 40 39 38 37 37 38 38 39 41 43 44 44 44 44 43 44 44 44 44 44 45 44
60 54 49 45 42 32 42 43 47 44 54 50 51 50 49 46 45 46 46 46 42 42 40 39 40 40 41 40 39 38 36 36 35 37 38 38 42 42 43 43 43 43 43 43 43 44 44 43 43
55 47 31 29 27 33 48 43 49 52 58 55 50 49 46 46 45 44 44 42 41 40 39 39 39 38 39 38 38 38 37 36 35 36 38 36 39 39 40 42 41 41 42 43 43 42 42 41 41
51 51 37 28 28 36 47 35 46 53 60 58 55 51 46 44 45 44 44 42 41 40 38 38 39 39 39 39 38 38 39 38 36 40 38 36 38 39 40 40 40 40 40 41 42 41 41 40 39
48 44 53 40 38 28 35 43 49 49 48 52 49 46 43 43 43 44 43 41 39 38 37 36 37 38 40 41 41 42 41 41 39 40 40 37 38 40 37 38 37 38 38 38 40 38 38 39 38
51 53 39 34 31 29 37 38 36 40 42 46 44 42 42 43 42 43 41 40 39 38 37 36 37 38 41 42 42 42 42 40 41 40 37 36 36 37 35 37 37 36 37 37 38 37 37 36 33
48 47 46 45 40 33 31 32 42 45 46 44 44 43 41 42 42 42 40 40 39 38 36 36 37 38 42 42 42 40 39 37 37 35 35 35 35 35 33 33 32 33 35 36 35 35 34 33 31
51 50 47 35 33 35 33 36 50 49 50 49 47 44 43 43 43 43 40 39 38 37 37 36 37 38 39 40 40 36 36 36 35 34 34 34 33 33 33 32 31 32 33 33 33 32 32 30 31

GFSSGP_sfc_temp_144.txt.gz
Temp
64 65 64 65 57 52 45 51 56 58 59 64 69 68 63 63 64 56 71 73 73 71 73 74 74 75 75 75 75 75 75 76 76 76 76 76 76 76 76 76 76 77 78 79 78 78 78 77 75
64 69 65 57 51 46 50 53 57 61 65 69 71 69 66 64 71 70 70 74 74 73 72 72 74 74 75 75 75 75 76 76 75 76 76 76 76 76 76 75 75 76 78 78 78 78 78 76 74
66 68 61 51 44 47 49 56 60 65 69 67 67 69 68 65 72 71 72 74 73 71 71 71 72 73 74 74 75 75 75 75 75 75 76 76 76 76 75 75 75 76 77 78 78 78 76 74 73
66 64 58 51 44 52 54 58 63 64 66 68 66 64 69 70 72 72 72 72 71 71 70 69 70 71 72 73 74 74 74 73 74 74 75 76 76 76 75 74 75 76 77 78 78 77 75 73 73
61 56 48 43 46 53 58 62 64 63 65 66 65 62 65 68 68 67 66 68 66 65 66 68 69 69 70 71 73 73 73 73 73 74 74 74 75 75 74 74 74 75 75 76 76 75 74 73 72
58 54 45 42 48 56 59 64 67 65 65 65 64 63 61 67 65 65 65 63 63 62 63 64 68 69 68 69 70 70 71 72 72 73 73 74 74 74 74 74 74 74 74 74 74 73 73 72 72
55 50 43 42 50 55 61 65 65 64 64 63 68 58 59 62 65 65 62 62 61 61 60 61 62 65 66 67 68 68 69 69 70 71 71 72 71 72 73 73 73 73 73 72 72 72 71 71 71
56 53 43 44 50 53 60 64 66 64 60 71 68 57 54 62 65 64 61 59 59 59 58 58 59 61 62 63 67 68 68 68 68 69 69 69 69 71 71 71 72 72 72 71 72 72 71 71 69
55 48 43 47 51 57 62 61 62 64 65 62 61 62 62 65 64 59 57 56 56 58 55 56 56 57 59 62 64 65 67 67 66 67 68 69 69 68 69 70 70 71 69 69 70 70 70 69 69
54 46 51 56 57 58 59 61 64 63 61 58 57 61 63 63 60 57 54 53 53 53 54 52 54 54 57 62 58 60 64 63 63 64 64 65 67 68 71 69 69 69 69 70 70 69 69 69 70
48 50 54 59 62 59 58 60 60 60 57 59 57 57 60 58 56 54 52 51 51 51 52 52 53 53 54 55 55 57 59 62 61 61 61 62 63 63 65 66 66 65 66 65 66 68 68 68 69
49 58 58 59 62 59 58 62 59 58 60 63 62 61 57 56 54 53 51 50 50 50 50 51 51 52 52 53 54 54 56 56 58 58 59 59 59 60 61 60 60 60 61 62 63 63 64 64 65
52 56 60 62 60 60 60 58 59 53 56 60 60 59 56 54 52 52 50 49 49 48 49 49 51 51 51 52 51 53 52 53 52 53 55 56 56 57 58 57 57 57 57 56 56 57 59 60 62
54 56 57 58 58 59 58 55 58 54 55 56 58 54 54 53 51 48 48 47 48 49 48 48 50 50 51 50 49 49 51 51 51 51 50 51 52 54 55 54 55 55 55 56 56 56 56 57 58
56 51 54 57 57 58 59 53 55 56 54 54 53 53 51 51 50 48 48 47 48 48 48 49 48 49 49 49 49 49 49 50 49 49 49 49 49 49 49 50 50 52 53 52 53 53 52 53 54
50 47 44 55 59 59 58 49 57 54 54 50 49 51 50 49 50 48 48 47 46 47 47 47 51 47 48 48 47 48 47 47 47 47 47 47 47 47 47 47 46 48 50 49 49 49 49 49 50
43 38 41 49 58 55 53 49 58 54 57 51 49 48 47 46 47 48 48 46 46 45 46 45 46 46 46 46 46 46 46 45 45 45 44 45 45 46 45 45 45 47 47 46 47 47 46 46 47
39 38 35 41 51 49 47 47 53 54 55 53 49 46 46 45 46 49 49 46 45 43 44 45 44 45 45 45 45 45 44 44 44 44 43 43 43 44 43 43 44 45 45 44 45 44 46 45 46
45 42 41 42 53 49 47 47 52 53 52 48 44 45 45 45 47 50 49 45 43 42 43 43 43 42 44 43 42 41 39 40 41 42 42 42 42 42 41 41 42 43 42 43 44 44 44 44 47
46 43 42 46 52 49 45 46 51 51 51 53 49 47 47 45 47 48 46 43 43 42 42 42 41 41 41 41 41 41 39 39 39 40 40 41 41 41 42 39 40 40 41 41 42 42 42 44 46
43 42 43 44 49 48 44 48 49 50 50 55 54 53 50 48 46 47 45 43 41 40 40 40 39 40 40 41 42 41 40 39 38 38 38 39 40 40 40 39 39 39 40 40 42 44 44 42 47
40 48 49 46 41 35 45 36 46 47 48 49 51 50 49 48 48 47 45 42 40 40 40 40 40 40 40 40 40 38 36 34 35 35 36 37 39 39 40 39 39 39 40 39 43 44 43 43 41
44 50 46 45 39 36 40 35 41 51 44 45 49 49 49 49 47 45 45 44 42 40 38 37 39 38 38 38 37 36 34 34 35 35 35 36 37 38 39 39 38 38 39 41 42 42 41 42 41
52 45 44 40 38 26 39 38 45 42 52 50 51 50 50 49 46 46 45 44 40 37 36 36 37 37 38 36 35 35 33 33 33 33 33 34 35 36 36 37 36 37 38 39 40 42 41 40 40
45 39 26 26 25 29 44 38 47 49 52 53 51 50 50 47 44 43 42 41 38 36 36 36 36 35 35 35 34 34 33 33 33 32 33 33 33 33 33 34 35 36 37 38 39 40 37 37 36
47 44 33 28 27 32 42 33 44 51 53 52 53 52 48 44 44 43 42 40 38 37 35 36 36 35 35 35 34 34 35 35 34 34 33 33 33 32 33 33 33 38 39 38 38 38 36 34 32
43 40 47 37 37 29 33 38 48 47 48 47 46 45 44 42 42 42 41 39 38 37 36 35 35 35 35 35 35 35 35 35 34 33 33 32 32 35 31 32 32 33 37 35 36 36 32 31 32
48 49 36 33 25 24 31 35 36 41 43 44 42 41 43 42 41 41 40 39 39 38 37 36 37 36 36 37 36 36 35 35 34 33 31 31 30 30 30 30 31 33 33 33 32 30 33 29 29
44 42 44 41 35 28 27 31 44 45 48 47 44 43 40 40 40 40 40 40 40 39 38 37 37 37 36 36 36 35 34 33 33 32 31 29 30 29 29 30 30 31 30 29 29 29 29 27 28
49 43 43 33 30 31 32 32 48 47 47 46 45 41 39 41 41 40 39 39 37 37 36 36 35 36 36 37 36 33 33 32 31 30 29 29 29 29 29 30 30 30 28 28 28 28 28 27 27

GFSSGP_sfc_temp_147.txt.gz
Temp
71 76 78 80 73 70 64 66 71 70 71 74 77 75 73 71 69 66 77 78 78 78 79 80 74 75 75 75 75 75 76 76 76 76 76 76 76 76 76 76 76 77 78 79 79 78 78 77 76
76 77 79 73 69 65 67 67 68 73 73 77 76 74 72 67 74 73 76 77 78 77 77 78 73 74 75 74 75 75 76 76 76 76 76 76 76 76 76 75 76 77 78 79 79 79 78 76 75
77 77 77 68 62 64 66 68 71 72 74 75 73 76 73 67 75 73 75 76 76 75 76 74 72 73 74 74 74 74 75 75 75 75 76 76 76 76 76 75 75 76 78 78 79 78 76 75 74
79 79 71 67 62 66 67 71 72 71 74 75 76 68 71 68 71 73 75 75 74 73 75 71 70 71 73 74 74 74 74 74 74 74 75 76 76 76 75 75 75 77 77 78 78 77 75 74 73
74 72 66 62 61 66 70 73 74 71 72 73 73 66 65 66 68 71 72 72 71 70 72 73 69 70 72 72 73 73 73 73 73 74 74 75 75 75 75 74 75 75 76 76 76 76 74 73 73
73 69 63 61 61 67 70 74 74 72 72 71 70 68 64 67 68 68 70 69 69 69 69 70 70 69 69 70 70 70 70 71 72 72 73 74 74 74 74 74 74 74 74 74 74 74 73 73 73
70 67 61 59 61 64 70 74 72 72 70 70 73 64 64 62 66 69 68 68 67 67 67 68 70 70 67 68 68 68 69 70 70 71 71 72 72 72 73 73 74 74 73 73 73 73 72 72 72
68 68 58 60 62 65 71 73 75 75 71 75 73 65 63 64 65 66 68 68 67 65 65 66 67 69 70 71 68 68 67 68 69 69 69 69 71 71 72 72 72 72 72 72 73 72 72 71 70
68 63 58 60 60 66 72 70 73 74 73 67 66 69 69 67 65 64 67 67 67 65 64 64 65 66 69 69 68 68 67 66 67 69 67 70 72 75 76 70 70 70 69 69 70 70 70 69 69
67 60 61 66 67 68 71 71 73 72 67 63 63 64 66 65 64 65 67 65 64 63 63 64 64 64 66 69 67 68 69 69 68 67 67 67 67 68 70 68 67 67 68 68 69 69 69 70 74
61 61 63 67 69 71 70 69 72 70 65 68 66 61 64 64 64 65 65 65 63 62 63 64 63 64 65 65 67 67 67 68 66 64 64 63 64 65 65 66 67 69 67 71 73 74 72 74 77
60 65 65 68 70 69 69 72 69 71 72 72 70 66 65 64 64 64 63 61 61 61 61 62 63 63 63 65 64 64 64 64 64 62 60 60 61 60 60 60 60 60 60 64 67 67 70 71 72
61 64 66 69 67 67 69 69 69 69 63 69 67 65 65 65 63 63 62 61 60 60 60 61 63 62 62 62 62 62 61 61 60 60 59 62 62 58 59 58 58 58 59 59 59 62 65 67 67
62 62 64 66 67 67 67 67 68 65 63 64 64 63 64 64 62 60 59 59 60 59 59 60 61 61 62 60 59 59 59 58 58 58 57 58 60 60 61 60 60 62 63 62 62 62 62 61 62
63 59 63 64 67 67 68 62 64 65 63 62 63 63 63 62 60 60 60 58 59 59 58 58 58 60 59 58 58 57 57 57 56 56 55 55 57 57 58 59 59 60 61 60 61 61 62 63 64
59 57 54 62 65 67 67 60 69 62 62 61 62 61 60 60 60 59 58 58 59 59 58 59 59 58 57 56 56 56 56 56 55 55 55 54 55 55 56 57 56 58 58 59 60 59 60 60 60
51 51 51 57 64 65 63 61 69 62 62 62 61 61 60 59 58 58 57 58 58 59 57 57 57 57 56 55 55 54 53 54 54 54 54 52 53 53 55 55 55 56 56 56 56 57 57 58 59
48 48 49 53 62 60 61 59 63 60 62 62 62 61 60 58 58 56 55 56 57 57 57 56 56 56 55 55 54 54 53 52 53 53 52 51 51 51 53 53 52 54 54 54 55 54 56 56 56
53 50 51 55 60 56 57 59 63 65 59 60 59 59 59 58 58 56 54 53 54 55 55 55 54 54 55 55 54 53 51 50 50 51 50 50 50 50 51 52 52 52 52 52 53 54 53 55 56
51 49 49 54 57 56 57 56 62 63 60 62 61 59 58 58 53 54 52 52 53 53 54 53 54 54 55 56 54 54 51 50 50 50 49 50 49 49 50 50 50 50 51 51 51 51 52 53 54
48 47 49 49 55 57 54 54 60 61 63 62 64 64 62 57 54 52 51 50 53 52 52 52 53 53 53 53 52 51 50 49 49 48 47 47 48 48 48 49 50 49 50 49 50 50 49 50 53
45 53 52 50 48 43 53 43 58 60 59 58 60 61 60 58 55 54 51 49 51 51 51 51 51 51 51 52 52 51 53 48 47 46 47 47 47 47 47 47 48 48 49 48 49 50 50 50 46
49 54 51 50 47 45 48 44 55 60 56 56 58 60 60 59 55 53 51 51 52 49 49 49 49 50 49 50 51 50 47 46 46 46 45 45 46 46 46 46 46 47 48 48 47 47 47 48 47
55 51 50 46 46 37 46 47 51 59 59 61 60 59 58 57 55 54 53 51 49 48 47 48 48 48 48 48 47 47 46 44 45 44 44 44 44 44 44 45 46 47 47 46 46 46 45 45 45
51 46 37 33 34 35 49 45 51 60 62 64 62 59 57 56 53 52 49 48 46 44 44 46 46 44 45 46 46 46 45 45 44 44 44 43 43 43 42 44 44 45 45 45 44 44 43 42 42
48 47 38 27 29 37 45 40 51 58 58 60 62 62 57 54 53 51 50 49 46 44 44 45 44 43 44 44 44 45 45 46 45 45 44 44 43 42 42 43 44 43 44 44 42 42 42 41 40
45 41 50 36 35 30 37 46 56 57 57 56 54 53 54 52 51 50 50 48 46 45 44 44 44 44 43 44 44 44 45 44 43 43 43 43 43 42 42 42 42 42 42 42 42 40 39 40 40
51 54 39 34 27 27 34 38 41 49 52 57 56 53 51 51 49 49 48 47 46 46 45 44 44 44 44 44 44 44 44 44 43 42 40 40 40 41 41 41 41 40 40 40 39 38 38 38 38
47 45 46 45 36 30 31 38 50 51 53 53 57 57 53 49 48 48 47 46 46 45 44 43 43 43 43 43 44 42 42 42 41 40 40 40 39 40 39 39 39 38 38 38 38 37 37 36 36
48 44 44 33 30 34 33 36 56 54 54 53 55 53 51 49 48 48 47 45 44 43 43 42 43 43 42 42 41 40 40 40 39 38 38 39 38 38 39 39 37 37 36 37 36 35 36 35 35

GFSSGP_sfc_temp_150.txt.gz
Temp
82 94 96 92 82 83 79 79 85 82 81 87 91 86 86 86 82 75 82 85 88 87 87 85 75 75 76 76 76 76 77 77 77 77 77 77 77 77 76 76 77 78 79 79 79 79 78 77 76
93 92 94 92 79 76 80 83 80 85 87 87 85 85 83 75 83 78 82 82 87 88 89 86 74 75 75 75 75 76 76 77 77 77 77 77 77 76 76 76 76 77 78 79 79 79 78 76 75
90 91 89 85 81 77 81 82 86 84 86 86 83 86 81 75 79 78 82 84 87 86 84 78 73 74 75 75 75 75 75 75 76 76 77 77 77 77 76 76 76 77 78 79 79 79 77 75 75
93 93 89 78 77 80 80 84 87 83 84 87 88 78 77 75 73 80 82 85 85 85 84 73 71 73 74 74 74 74 74 74 75 76 76 77 77 77 76 76 76 78 78 79 79 78 76 75 74
94 90 78 76 78 79 82 84 88 83 84 84 88 76 75 69 72 80 83 84 82 82 83 79 70 72 73 73 73 73 73 74 74 75 75 76 76 76 76 75 76 76 77 78 77 76 75 74 74
85 86 75 75 78 80 83 85 87 84 84 84 82 80 74 70 72 78 81 80 81 79 80 80 72 71 71 71 71 71 72 72 73 73 74 75 76 75 75 75 75 75 75 75 75 75 75 74 74
81 80 76 75 76 76 80 86 83 83 82 82 86 78 74 67 76 80 80 79 78 78 78 78 80 73 69 68 68 69 70 71 71 71 72 73 73 73 74 75 75 75 74 74 74 74 74 74 73
84 81 73 76 75 76 81 83 87 85 83 86 86 78 73 72 76 80 81 81 79 76 76 76 77 79 79 76 68 68 68 68 69 69 70 69 72 73 73 73 73 73 74 73 73 73 73 73 72
83 74 73 74 74 78 81 80 84 89 82 82 82 81 80 75 76 78 78 80 78 76 76 75 75 77 78 78 74 70 68 69 70 71 69 72 77 77 76 69 69 70 70 71 71 72 71 71 71
78 73 74 78 79 78 80 80 83 79 80 78 78 76 77 75 74 76 78 77 77 76 76 77 75 75 77 80 78 78 78 78 78 77 75 75 71 70 71 69 68 68 69 69 70 70 70 72 80
76 71 76 78 78 80 79 79 85 81 77 82 79 75 74 74 74 75 80 80 79 77 77 77 74 74 76 76 80 81 81 80 76 74 74 71 69 67 71 70 72 75 72 81 79 78 83 80 79
69 76 77 79 78 78 78 82 79 82 83 87 87 80 76 75 75 77 79 78 76 76 75 75 75 73 73 78 78 77 77 76 75 72 72 73 71 66 66 66 67 68 70 70 69 75 76 78 78
71 75 77 78 78 78 79 78 79 80 86 83 85 79 77 77 78 80 81 78 78 75 73 73 73 72 73 73 73 73 73 72 71 71 69 74 74 70 70 68 69 66 68 71 73 75 73 76 75
71 72 73 75 76 77 73 78 78 82 81 81 80 78 79 78 78 79 77 75 74 74 72 72 72 72 72 70 69 69 69 69 69 68 67 68 71 70 73 73 73 73 73 74 74 73 74 75 74
72 67 73 75 76 75 78 72 72 84 80 79 78 79 79 78 79 77 76 74 74 74 73 71 69 70 69 68 69 68 68 68 68 66 64 64 67 66 69 71 71 70 71 70 73 72 74 74 75
67 69 63 74 75 77 75 66 81 85 78 78 78 78 77 77 77 77 76 75 75 73 71 70 70 68 67 66 68 68 67 67 66 66 65 62 64 65 67 68 67 68 69 69 71 70 70 72 72
66 61 64 67 75 74 72 69 80 81 76 79 80 80 77 77 76 76 74 74 74 73 70 69 67 66 66 65 66 65 64 66 65 66 65 61 62 62 66 66 64 65 67 66 66 68 66 68 68
62 61 64 63 72 72 70 70 76 78 76 75 80 80 78 76 75 75 73 73 72 71 69 68 68 66 65 66 65 65 64 64 65 63 62 60 60 60 64 63 62 64 66 64 63 62 65 65 65
66 62 62 67 71 65 67 69 74 78 76 74 77 78 77 76 79 76 71 69 68 67 67 67 65 64 65 65 65 65 63 62 61 61 59 59 59 58 60 63 62 63 62 60 61 63 62 65 64
62 59 60 66 69 65 65 66 73 76 75 76 76 76 77 77 77 72 68 66 65 66 66 66 66 64 66 68 68 67 64 62 62 60 58 58 57 57 58 59 59 59 61 59 59 59 61 64 62
59 58 59 59 65 67 64 62 68 75 76 77 76 78 79 77 76 71 66 65 65 65 65 66 66 65 66 65 63 62 61 60 60 59 58 57 56 56 57 57 58 58 59 58 57 57 56 59 61
54 65 60 58 57 53 63 51 65 72 72 73 74 75 77 78 78 75 68 64 64 65 65 66 64 64 64 63 63 61 64 62 60 59 58 56 56 55 55 55 56 56 57 56 56 57 57 57 56
55 61 59 59 56 56 57 53 64 69 67 71 74 74 76 78 79 76 69 67 66 65 63 63 62 63 62 62 64 63 62 59 59 57 55 54 54 55 54 55 55 55 56 53 53 54 55 57 56
62 57 57 57 55 44 55 55 59 66 65 68 75 76 76 77 78 76 71 68 66 65 62 61 60 61 61 61 61 61 58 57 57 56 55 55 55 55 53 53 54 54 54 53 54 53 52 53 53
58 53 44 43 42 43 58 54 59 68 67 69 69 72 77 75 74 72 69 65 63 60 59 59 60 59 59 59 59 58 57 57 55 55 54 53 53 53 51 52 51 53 53 51 52 52 51 51 51
55 53 43 33 38 47 52 47 58 67 69 69 70 69 70 71 70 68 67 64 63 59 58 58 58 57 57 57 57 57 57 57 56 55 54 52 52 51 51 51 51 51 51 51 51 52 51 50 49
52 47 56 40 41 34 46 56 64 65 65 67 68 69 69 68 67 66 66 64 62 58 56 56 57 57 56 55 55 54 55 54 53 51 52 51 50 50 50 50 49 49 49 49 49 49 48 49 48
56 56 40 39 29 31 46 48 49 57 57 59 60 62 64 68 64 63 63 61 61 58 56 55 56 55 54 54 53 53 53 52 51 50 49 49 48 49 49 49 49 48 47 48 48 47 47 47 47
51 48 48 46 39 33 36 44 62 58 59 58 62 64 66 65 66 63 62 61 58 56 55 53 54 53 52 51 52 52 51 50 50 48 48 47 48 48 48 48 47 46 46 46 46 45 45 44 44
55 50 48 36 37 37 36 40 63 62 61 63 63 64 67 70 65 65 62 58 55 55 53 51 52 52 51 52 50 50 49 49 46 45 44 45 47 47 47 46 45 45 44 45 44 43 44 43 42